M I D A S
Marine Information and Data Acquisition System
Tripno 1468 of the Zeeleeuw from 2008-04-29 07:10:44 to 2008-04-29 11:47:07
Back to CruiseResearch ActivitiesStationsMapUnderway DataData graphs

EquipmentUnitsComment
TimeDGPSUTC
LatitudeDGPSDM.mWGS84
LongitudeDGPSDM.mWGS84
TemperatureSBE03/SBE38deg celciusITS90
ConductivitySBE21S/mITS90
SalinitySBE21 Practical Salinity Units
ChlorophylAChelsea fluorimeterg/lCalibrated in Aceton
Missing or incorrect values are displayed as -999
Sea surface data collected by the RV Zeeleeuw from 2008-04-29 07:11:35 to 2008-04-29 11:57:39
                                                                                    Next 1000 lines
Time Latitude Longitude Temperature Conductivity Salinity ChlorophylA
2008-04-29 07:11:46 51°13.663 2°55.953 18.7858 0.088105 0.459265 -1.697049
2008-04-29 07:11:50 51°13.664 2°55.951 18.6505 0.088105 0.459273 -1.697049
2008-04-29 07:11:55 51°13.665 2°55.948 18.725 0.088105 0.459273 -1.697049
2008-04-29 07:12:00 51°13.666 2°55.945 18.7384 0.088105 0.45928 -1.697049
2008-04-29 07:12:06 51°13.668 2°55.94 18.7549 0.088105 0.459295 -1.697049
2008-04-29 07:12:10 51°13.669 2°55.935 18.7631 0.088105 0.459303 -1.697049
2008-04-29 07:12:15 51°13.671 2°55.93 18.7756 0.088105 0.459311 -1.697049
2008-04-29 07:12:20 51°13.673 2°55.924 18.7638 0.088105 0.459311 -1.697049
2008-04-29 07:12:26 51°13.676 2°55.915 18.8033 0.088105 0.459311 -1.697049
2008-04-29 07:12:30 51°13.677 2°55.909 18.7745 0.088105 0.459318 -1.697049
2008-04-29 07:12:35 51°13.679 2°55.901 18.7893 0.088105 0.459318 -1.697049
2008-04-29 07:12:40 51°13.681 2°55.893 18.7903 0.088105 0.459326 -1.697049
2008-04-29 07:12:45 51°13.683 2°55.884 18.8422 0.088105 0.459333 -1.697049
2008-04-29 07:12:51 51°13.685 2°55.873 18.8173 0.088105 0.459341 -1.697049
2008-04-29 07:12:56 51°13.686 2°55.864 18.8296 0.088105 0.459341 -1.697049
2008-04-29 07:13:00 51°13.687 2°55.857 18.8432 0.088105 0.459432 -1.697049
2008-04-29 07:13:05 51°13.688 2°55.849 18.8359 0.088105 0.459599 -1.697049
2008-04-29 07:13:10 51°13.689 2°55.84 18.8333 0.088105 0.459691 -1.697049
2008-04-29 07:13:16 51°13.69 2°55.831 18.8307 0.088105 0.459706 -1.697049
2008-04-29 07:13:21 51°13.691 2°55.823 18.8295 0.088105 0.459683 -1.697049
2008-04-29 07:13:25 51°13.691 2°55.817 18.8271 0.088105 0.459683 -1.697049
2008-04-29 07:13:30 51°13.691 2°55.809 18.8265 0.088105 0.459622 -1.697049
2008-04-29 07:13:36 51°13.691 2°55.8 18.8248 0.088105 0.459531 -1.697049
2008-04-29 07:13:41 51°13.692 2°55.794 18.825 0.088105 0.459447 -1.697049
2008-04-29 07:13:45 51°13.692 2°55.788 18.8215 0.088105 0.459356 -1.697049
2008-04-29 07:13:50 51°13.692 2°55.782 18.8194 0.088105 0.459311 -1.697049
2008-04-29 07:13:56 51°13.692 2°55.776 18.8177 0.088105 0.459311 -1.697049
2008-04-29 07:14:01 51°13.691 2°55.77 18.8168 0.088105 0.459303 -1.697049
2008-04-29 07:14:06 51°13.691 2°55.766 18.8149 0.088105 0.459326 -1.697049
2008-04-29 07:14:10 51°13.691 2°55.762 18.8116 0.088105 0.459409 -1.697049
2008-04-29 07:14:15 51°13.691 2°55.758 18.8155 0.088105 0.459508 -1.697049
2008-04-29 07:14:21 51°13.691 2°55.754 18.7995 0.088105 0.459599 -1.697049
2008-04-29 07:14:26 51°13.691 2°55.751 18.8065 0.088105 0.459599 -1.697049
2008-04-29 07:14:30 51°13.69 2°55.748 18.786 0.088105 0.459652 -1.697049
2008-04-29 07:14:35 51°13.69 2°55.745 18.8055 0.088105 0.459675 -1.697049
2008-04-29 07:14:40 51°13.69 2°55.742 18.8092 0.088105 0.459675 -1.697049
2008-04-29 07:14:46 51°13.69 2°55.74 18.818 0.088105 0.45966 -1.697049
2008-04-29 07:14:50 51°13.69 2°55.738 18.8289 0.088105 0.459637 -1.697049
2008-04-29 07:14:55 51°13.689 2°55.737 18.8362 0.088105 0.459637 -1.697049
2008-04-29 07:15:00 51°13.69 2°55.735 18.8328 0.088105 0.459607 -1.697049
2008-04-29 07:15:05 51°13.69 2°55.734 18.8331 0.088105 0.459584 -1.731873
2008-04-29 07:15:10 51°13.69 2°55.734 18.8372 0.088105 0.459576 -1.697049
2008-04-29 07:15:15 51°13.691 2°55.734 18.8386 0.088105 0.459576 -1.697049
2008-04-29 07:15:20 51°13.692 2°55.734 18.839 0.088105 0.459592 -1.697049
2008-04-29 07:15:25 51°13.693 2°55.734 18.8442 0.088105 0.459592 -1.697049
2008-04-29 07:15:30 51°13.694 2°55.734 18.8882 0.088105 0.459607 -1.697049
2008-04-29 07:15:35 51°13.696 2°55.734 18.9175 0.088105 0.45963 -1.697049
2008-04-29 07:15:40 51°13.698 2°55.735 18.9442 0.088105 0.459652 -1.697049
2008-04-29 07:15:45 51°13.701 2°55.735 18.9469 0.088105 0.459691 -1.697049
2008-04-29 07:15:50 51°13.704 2°55.735 18.9731 0.088105 0.459713 -1.697049
2008-04-29 07:15:55 51°13.708 2°55.733 18.9836 0.088105 0.459713 -1.697049
2008-04-29 07:16:00 51°13.713 2°55.731 19.001 0.088105 0.459744 -1.697049
2008-04-29 07:16:06 51°13.719 2°55.728 18.945 0.088105 0.459767 -1.697049
2008-04-29 07:16:10 51°13.723 2°55.725 18.9329 0.088105 0.459767 -1.697049
2008-04-29 07:16:15 51°13.729 2°55.72 18.8756 0.088105 0.459751 -1.697049
2008-04-29 07:16:20 51°13.735 2°55.716 18.8593 0.088105 0.459729 -1.697049
2008-04-29 07:16:26 51°13.743 2°55.71 18.8315 0.088105 0.459729 -1.697049
2008-04-29 07:16:30 51°13.749 2°55.706 18.8394 0.088105 0.459706 -1.697049
2008-04-29 07:16:35 51°13.756 2°55.7 18.8324 0.088105 0.459675 -1.697049
2008-04-29 07:16:41 51°13.765 2°55.694 18.8111 0.088002 0.459104 -1.697049
2008-04-29 07:16:45 51°13.771 2°55.689 18.8158 0.088002 0.459104 -1.697049
2008-04-29 07:16:50 51°13.779 2°55.682 18.8201 0.088002 0.459111 -1.697049
2008-04-29 07:16:55 51°13.787 2°55.676 18.8228 0.088002 0.459111 -1.697049
2008-04-29 07:17:00 51°13.795 2°55.67 18.8069 0.088002 0.459142 -1.697049
2008-04-29 07:17:06 51°13.805 2°55.662 18.8041 0.088002 0.45918 -1.697049
2008-04-29 07:17:11 51°13.813 2°55.656 18.786 0.088002 0.459218 -1.697049
2008-04-29 07:17:15 51°13.819 2°55.652 18.7974 0.088002 0.459248 -1.697049
2008-04-29 07:17:20 51°13.827 2°55.646 18.8073 0.088002 0.459271 -1.697049
2008-04-29 07:17:25 51°13.836 2°55.64 18.8179 0.088002 0.459271 -1.697049
2008-04-29 07:17:30 51°13.843 2°55.633 18.8232 0.088002 0.459286 -1.697049
2008-04-29 07:17:35 51°13.851 2°55.626 18.8322 0.088002 0.459294 -1.697049
2008-04-29 07:17:40 51°13.859 2°55.62 18.8403 0.088002 0.459294 -1.697049
2008-04-29 07:17:45 51°13.867 2°55.613 18.8347 0.088002 0.459286 -1.697049
2008-04-29 07:17:50 51°13.875 2°55.606 18.8341 0.088002 0.459286 -1.697049
2008-04-29 07:17:56 51°13.884 2°55.599 18.8267 0.088002 0.459286 -1.697049
2008-04-29 07:18:01 51°13.893 2°55.593 18.8249 0.088002 0.459279 -1.697049
2008-04-29 07:18:05 51°13.899 2°55.588 18.8236 0.088002 0.459271 -1.697049
2008-04-29 07:18:10 51°13.907 2°55.582 18.8116 0.088002 0.459279 -1.697049
2008-04-29 07:18:16 51°13.916 2°55.575 18.8198 0.088002 0.459286 -1.697049
2008-04-29 07:18:21 51°13.924 2°55.57 18.8424 0.088002 0.459294 -1.697049
2008-04-29 07:18:25 51°13.93 2°55.565 18.8449 0.088002 0.459294 -1.697049
2008-04-29 07:18:30 51°13.937 2°55.559 18.8429 0.088002 0.459309 -1.697049
2008-04-29 07:18:35 51°13.945 2°55.553 18.841 0.088002 0.459324 -1.697049
2008-04-29 07:18:41 51°13.953 2°55.547 18.8443 0.088002 0.459339 -1.697049
2008-04-29 07:18:45 51°13.959 2°55.542 18.8407 0.088002 0.459347 -1.697049
2008-04-29 07:18:50 51°13.967 2°55.537 18.8402 0.088002 0.459355 -1.697049
2008-04-29 07:18:55 51°13.974 2°55.531 18.841 0.088002 0.459355 -1.697049
2008-04-29 07:19:01 51°13.983 2°55.525 18.8608 0.088002 0.459362 -1.697049
2008-04-29 07:19:06 51°13.99 2°55.519 18.863 0.088002 0.459362 -1.697049
2008-04-29 07:19:10 51°13.996 2°55.515 18.8482 0.088002 0.459362 -1.697049
2008-04-29 07:19:16 51°14.005 2°55.508 18.8421 0.088002 0.459362 -1.697049
2008-04-29 07:19:20 51°14.01 2°55.504 18.8363 0.088002 0.45937 -1.697049
2008-04-29 07:19:26 51°14.019 2°55.497 18.8375 0.088002 0.45937 -1.697049
2008-04-29 07:19:30 51°14.024 2°55.493 18.8493 0.088002 0.45937 -1.697049
2008-04-29 07:19:35 51°14.031 2°55.488 18.8554 0.088002 0.459377 -1.697049
2008-04-29 07:19:40 51°14.039 2°55.482 18.8582 0.088002 0.459393 -1.697049
2008-04-29 07:19:45 51°14.046 2°55.477 18.8761 0.088002 0.459408 -1.697049
2008-04-29 07:19:51 51°14.054 2°55.47 18.8657 0.088002 0.459415 -1.697049
2008-04-29 07:19:55 51°14.06 2°55.465 18.8603 0.088002 0.459415 -1.697049
2008-04-29 07:20:00 51°14.067 2°55.46 18.8618 0.088002 0.459431 -1.697049
2008-04-29 07:20:05 51°14.074 2°55.454 18.8575 0.088002 0.459446 -1.697049
2008-04-29 07:20:11 51°14.083 2°55.448 18.8731 0.088002 0.459446 -1.697049
2008-04-29 07:20:15 51°14.088 2°55.443 18.8715 0.088002 0.459454 -1.731873
2008-04-29 07:20:21 51°14.096 2°55.436 18.8742 0.088002 0.459461 -1.697049
2008-04-29 07:20:25 51°14.102 2°55.431 18.8815 0.088002 0.459461 -1.697049
2008-04-29 07:20:30 51°14.109 2°55.425 18.8802 0.088002 0.459461 -1.697049
2008-04-29 07:20:36 51°14.118 2°55.418 18.881 0.088002 0.459461 -1.697049
2008-04-29 07:20:41 51°14.125 2°55.413 18.8858 0.088002 0.459469 -1.697049
2008-04-29 07:20:45 51°14.131 2°55.408 18.8862 0.088002 0.459476 -1.697049
2008-04-29 07:20:50 51°14.138 2°55.401 18.8946 0.088002 0.459476 -1.697049
2008-04-29 07:20:55 51°14.147 2°55.394 18.8777 0.088002 0.459476 -1.697049
2008-04-29 07:21:01 51°14.157 2°55.385 18.8761 0.088002 0.459484 -1.697049
2008-04-29 07:21:06 51°14.166 2°55.377 18.8885 0.088002 0.459492 -1.697049
2008-04-29 07:21:10 51°14.174 2°55.37 18.8969 0.088002 0.459507 -1.697049
2008-04-29 07:21:15 51°14.183 2°55.361 18.8593 0.088002 0.459522 -1.697049
2008-04-29 07:21:20 51°14.193 2°55.351 18.8539 0.088002 0.45953 -1.697049
2008-04-29 07:21:26 51°14.204 2°55.339 18.8423 0.088002 0.45953 -1.697049
2008-04-29 07:21:31 51°14.214 2°55.329 18.8382 0.088002 0.459537 -1.697049
2008-04-29 07:21:35 51°14.222 2°55.322 18.8419 0.088002 0.459537 -1.697049
2008-04-29 07:21:40 51°14.232 2°55.312 18.8907 0.088002 0.459545 -1.697049
2008-04-29 07:21:46 51°14.242 2°55.298 18.9121 0.088002 0.459552 -1.697049
2008-04-29 07:21:50 51°14.249 2°55.288 18.9196 0.088002 0.459568 -1.697049
2008-04-29 07:21:55 51°14.257 2°55.275 18.9088 0.088002 0.459568 -1.697049
2008-04-29 07:22:00 51°14.264 2°55.262 18.7895 0.088002 0.459575 -1.697049
2008-04-29 07:22:05 51°14.272 2°55.248 18.7795 0.088002 0.459583 -1.697049
2008-04-29 07:22:10 51°14.279 2°55.234 18.8062 0.088002 0.459583 -1.697049
2008-04-29 07:22:15 51°14.286 2°55.221 18.8239 0.088002 0.459591 -1.697049
2008-04-29 07:22:20 51°14.293 2°55.206 18.7891 0.088002 0.459598 -1.697049
2008-04-29 07:22:25 51°14.3 2°55.192 18.8213 0.088002 0.459598 -1.697049
2008-04-29 07:22:30 51°14.307 2°55.177 18.7651 0.088002 0.459606 -1.697049
2008-04-29 07:22:35 51°14.314 2°55.163 18.7967 0.088002 0.459613 -1.697049
2008-04-29 07:22:40 51°14.321 2°55.148 18.7776 0.088002 0.459629 -1.697049
2008-04-29 07:22:46 51°14.329 2°55.131 18.7789 0.088002 0.459636 -1.697049
2008-04-29 07:22:50 51°14.335 2°55.119 18.7685 0.088002 0.459644 -1.697049
2008-04-29 07:22:55 51°14.343 2°55.103 18.7817 0.088002 0.459644 -1.697049
2008-04-29 07:23:00 51°14.35 2°55.088 18.788 0.088002 0.459659 -1.697049
2008-04-29 07:23:05 51°14.358 2°55.072 18.8019 0.088002 0.459667 -1.697049
2008-04-29 07:23:10 51°14.367 2°55.056 18.7937 0.088002 0.459674 -1.731873
2008-04-29 07:23:15 51°14.375 2°55.039 18.7969 0.088002 0.459682 -1.697049
2008-04-29 07:23:21 51°14.386 2°55.018 18.8056 0.088002 0.45969 -1.697049
2008-04-29 07:23:26 51°14.395 2°55.001 18.7985 0.088002 0.45969 -1.697049
2008-04-29 07:23:30 51°14.402 2°54.986 18.8132 0.088002 0.459697 -1.697049
2008-04-29 07:23:35 51°14.411 2°54.967 18.8019 0.088002 0.459705 -1.697049
2008-04-29 07:23:40 51°14.42 2°54.948 18.8281 0.088002 0.459712 -1.697049
2008-04-29 07:23:46 51°14.431 2°54.924 18.8316 0.088002 0.459728 -1.731873
2008-04-29 07:23:50 51°14.438 2°54.908 18.7944 0.088002 0.459735 -1.697049
2008-04-29 07:23:55 51°14.447 2°54.888 18.7013 0.088002 0.459735 -1.697049
2008-04-29 07:24:00 51°14.457 2°54.868 18.6256 0.088002 0.459743 -1.697049
2008-04-29 07:24:05 51°14.466 2°54.847 18.6713 0.088002 0.459743 -1.697049
2008-04-29 07:24:10 51°14.475 2°54.827 18.7102 0.088002 0.459751 -1.697049
2008-04-29 07:24:15 51°14.485 2°54.807 18.7298 0.088002 0.459758 -1.697049
2008-04-29 07:24:20 51°14.494 2°54.786 18.7424 0.088002 0.459773 -1.697049
2008-04-29 07:24:25 51°14.503 2°54.765 18.7874 0.088002 0.459773 -1.697049
2008-04-29 07:24:30 51°14.512 2°54.743 18.8169 0.088002 0.459781 -1.697049
2008-04-29 07:24:35 51°14.521 2°54.721 18.674 0.088002 0.459796 -1.697049
2008-04-29 07:24:40 51°14.53 2°54.699 18.7093 0.088002 0.459796 -1.697049
2008-04-29 07:24:45 51°14.538 2°54.677 18.7098 0.088002 0.459796 -1.697049
2008-04-29 07:24:50 51°14.546 2°54.655 18.705 0.088002 0.459804 -1.697049
2008-04-29 07:24:55 51°14.555 2°54.632 18.7128 0.088002 0.459804 -1.697049
2008-04-29 07:25:00 51°14.563 2°54.61 18.7753 0.088002 0.459812 -1.697049
2008-04-29 07:25:05 51°14.57 2°54.586 18.7501 0.088002 0.459827 -1.697049
2008-04-29 07:25:10 51°14.577 2°54.563 18.6671 0.088002 0.459842 -1.697049
2008-04-29 07:25:15 51°14.585 2°54.54 18.702 0.088002 0.45985 -1.731873
2008-04-29 07:25:20 51°14.592 2°54.516 18.6602 0.088002 0.459865 -1.731873
2008-04-29 07:25:25 51°14.6 2°54.493 18.6815 0.088002 0.459865 -1.731873
2008-04-29 07:25:30 51°14.607 2°54.469 18.7451 0.088002 0.459873 -1.697049
2008-04-29 07:25:35 51°14.614 2°54.445 18.7209 0.087899 0.459338 -1.697049
2008-04-29 07:25:40 51°14.621 2°54.421 18.6941 0.088002 0.459888 -1.731873
2008-04-29 07:25:45 51°14.626 2°54.396 18.7272 0.088002 0.459895 -1.731873
2008-04-29 07:25:50 51°14.632 2°54.371 18.711 0.088002 0.459895 -1.697049
2008-04-29 07:25:55 51°14.638 2°54.347 18.8228 0.088002 0.459895 -1.697049
2008-04-29 07:26:00 51°14.641 2°54.321 18.7419 0.088002 0.459918 -1.697049
2008-04-29 07:26:05 51°14.646 2°54.296 18.7244 0.088002 0.459895 -1.697049
2008-04-29 07:26:10 51°14.649 2°54.27 18.7357 0.088002 0.45988 -1.697049
2008-04-29 07:26:15 51°14.652 2°54.245 18.6778 0.088002 0.459873 -1.697049
2008-04-29 07:26:20 51°14.655 2°54.219 18.7167 0.087899 0.459323 -1.697049
2008-04-29 07:26:25 51°14.657 2°54.193 18.6753 0.087899 0.459323 -1.697049
2008-04-29 07:26:30 51°14.66 2°54.168 18.6717 0.087899 0.459346 -1.697049
2008-04-29 07:26:35 51°14.662 2°54.142 18.6794 0.087899 0.459384 -1.697049
2008-04-29 07:26:40 51°14.664 2°54.116 18.5612 0.088002 0.459979 -1.697049
2008-04-29 07:26:45 51°14.667 2°54.091 18.6374 0.087899 0.459468 -1.697049
2008-04-29 07:26:50 51°14.669 2°54.065 18.6412 0.087899 0.459498 -1.697049
2008-04-29 07:26:55 51°14.672 2°54.039 18.6926 0.087899 0.459498 -1.697049
2008-04-29 07:27:00 51°14.675 2°54.014 18.6475 0.087899 0.459529 -1.697049
2008-04-29 07:27:05 51°14.678 2°53.988 18.6559 0.087899 0.459544 -1.697049
2008-04-29 07:27:10 51°14.681 2°53.963 18.6474 0.087899 0.459552 -1.697049
2008-04-29 07:27:15 51°14.685 2°53.937 18.6489 0.087899 0.459544 -1.697049
2008-04-29 07:27:20 51°14.689 2°53.912 18.6474 0.087899 0.459536 -1.697049
2008-04-29 07:27:25 51°14.693 2°53.886 18.6736 0.087899 0.459536 -1.697049
2008-04-29 07:27:30 51°14.697 2°53.861 18.6762 0.087899 0.459529 -1.697049
2008-04-29 07:27:35 51°14.702 2°53.835 18.6771 0.087899 0.459521 -1.697049
2008-04-29 07:27:40 51°14.706 2°53.81 18.6629 0.087899 0.459521 -1.731873
2008-04-29 07:27:45 51°14.71 2°53.785 18.6498 0.087899 0.459521 -1.697049
2008-04-29 07:27:50 51°14.715 2°53.759 18.6512 0.087899 0.459529 -1.697049
2008-04-29 07:27:55 51°14.719 2°53.734 18.6646 0.087899 0.459529 -1.697049
2008-04-29 07:28:00 51°14.724 2°53.709 18.6535 0.087899 0.459536 -1.697049
2008-04-29 07:28:05 51°14.728 2°53.683 18.6419 0.087899 0.459552 -1.697049
2008-04-29 07:28:10 51°14.733 2°53.658 18.6744 0.087899 0.459567 -1.697049
2008-04-29 07:28:15 51°14.738 2°53.633 18.6636 0.087899 0.45959 -1.731873
2008-04-29 07:28:20 51°14.742 2°53.607 18.65 0.087899 0.459605 -1.697049
2008-04-29 07:28:25 51°14.747 2°53.581 18.6857 0.087899 0.459605 -1.697049
2008-04-29 07:28:30 51°14.751 2°53.556 18.6271 0.087899 0.45962 -1.697049
2008-04-29 07:28:35 51°14.756 2°53.53 18.6511 0.087899 0.459635 -1.697049
2008-04-29 07:28:40 51°14.76 2°53.504 18.656 0.087899 0.459651 -1.697049
2008-04-29 07:28:45 51°14.765 2°53.478 18.6211 0.087899 0.459658 -1.731873
2008-04-29 07:28:50 51°14.769 2°53.452 18.6246 0.087899 0.459666 -1.697049
2008-04-29 07:28:55 51°14.774 2°53.426 18.6663 0.087899 0.459666 -1.697049
2008-04-29 07:29:00 51°14.779 2°53.4 18.674 0.087899 0.459674 -1.697049
2008-04-29 07:29:05 51°14.784 2°53.374 18.6932 0.087899 0.459674 -1.697049
2008-04-29 07:29:10 51°14.788 2°53.348 18.672 0.087899 0.459689 -1.697049
2008-04-29 07:29:15 51°14.792 2°53.322 18.6659 0.087899 0.459689 -1.697049
2008-04-29 07:29:20 51°14.796 2°53.295 18.6648 0.087899 0.459696 -1.697049
2008-04-29 07:29:25 51°14.8 2°53.269 18.641 0.087899 0.459696 -1.697049
2008-04-29 07:29:30 51°14.803 2°53.243 18.6577 0.087899 0.459704 -1.697049
2008-04-29 07:29:35 51°14.807 2°53.216 18.6443 0.087899 0.459719 -1.697049
2008-04-29 07:29:40 51°14.811 2°53.19 18.6477 0.087899 0.459727 -1.697049
2008-04-29 07:29:45 51°14.815 2°53.164 18.6441 0.087899 0.459742 -1.697049
2008-04-29 07:29:50 51°14.819 2°53.138 18.6494 0.087899 0.459765 -1.697049
2008-04-29 07:29:55 51°14.823 2°53.112 18.6399 0.087899 0.459765 -1.697049
2008-04-29 07:30:00 51°14.827 2°53.085 18.6283 0.087899 0.45978 -1.697049
2008-04-29 07:30:05 51°14.831 2°53.059 18.6485 0.087899 0.459796 -1.697049
2008-04-29 07:30:10 51°14.835 2°53.033 18.6175 0.087899 0.459811 -1.697049
2008-04-29 07:30:15 51°14.839 2°53.007 18.6448 0.087899 0.459819 -1.697049
2008-04-29 07:30:20 51°14.843 2°52.981 18.667 0.087899 0.459834 -1.697049
2008-04-29 07:30:25 51°14.847 2°52.955 18.6477 0.087899 0.459834 -1.697049
2008-04-29 07:30:30 51°14.851 2°52.929 18.6577 0.087899 0.459834 -1.697049
2008-04-29 07:30:35 51°14.855 2°52.903 18.659 0.087899 0.459849 -1.697049
2008-04-29 07:30:40 51°14.859 2°52.877 18.6489 0.087899 0.459849 -1.697049
2008-04-29 07:30:45 51°14.864 2°52.851 18.6368 0.087899 0.459864 -1.697049
2008-04-29 07:30:50 51°14.868 2°52.825 18.651 0.087899 0.459864 -1.731873
2008-04-29 07:30:55 51°14.872 2°52.799 18.6398 0.087899 0.459864 -1.731873
2008-04-29 07:31:00 51°14.876 2°52.773 18.6395 0.087899 0.45988 -1.697049
2008-04-29 07:31:05 51°14.88 2°52.747 18.6091 0.087899 0.459887 -1.697049
2008-04-29 07:31:10 51°14.885 2°52.722 18.6356 0.087899 0.459895 -1.731873
2008-04-29 07:31:15 51°14.889 2°52.696 18.6053 0.087899 0.45991 -1.697049
2008-04-29 07:31:20 51°14.894 2°52.67 18.6435 0.087899 0.459918 -1.697049
2008-04-29 07:31:25 51°14.898 2°52.644 18.6571 0.087899 0.459918 -1.697049
2008-04-29 07:31:30 51°14.902 2°52.618 18.6441 0.087899 0.459933 -1.731873
2008-04-29 07:31:35 51°14.907 2°52.593 18.6443 0.087899 0.459948 -1.697049
2008-04-29 07:31:40 51°14.911 2°52.567 18.6451 0.087899 0.459964 -1.697049
2008-04-29 07:31:45 51°14.915 2°52.541 18.6318 0.087899 0.459971 -1.731873
2008-04-29 07:31:50 51°14.919 2°52.515 18.6306 0.087899 0.459979 -1.697049
2008-04-29 07:31:55 51°14.924 2°52.49 18.6282 0.087899 0.459979 -1.697049
2008-04-29 07:32:00 51°14.928 2°52.464 18.6343 0.087899 0.459987 -1.697049
2008-04-29 07:32:05 51°14.933 2°52.439 18.6386 0.087899 0.459994 -1.731873
2008-04-29 07:32:10 51°14.937 2°52.413 18.6357 0.087899 0.459994 -1.731873
2008-04-29 07:32:15 51°14.942 2°52.388 18.6467 0.087899 0.460025 -1.731873
2008-04-29 07:32:20 51°14.946 2°52.362 18.6319 0.087899 0.460063 -1.731873
2008-04-29 07:32:25 51°14.951 2°52.336 18.6466 0.087899 0.460063 -1.731873
2008-04-29 07:32:30 51°14.955 2°52.311 18.6411 0.087899 0.460094 -1.697049
2008-04-29 07:32:35 51°14.959 2°52.285 18.6455 0.087899 0.460109 -1.697049
2008-04-29 07:32:40 51°14.964 2°52.259 18.6513 0.087899 0.460117 -1.697049
2008-04-29 07:32:45 51°14.968 2°52.234 18.6088 0.087899 0.460117 -1.697049
2008-04-29 07:32:50 51°14.973 2°52.208 18.655 0.087899 0.460109 -1.697049
2008-04-29 07:32:55 51°14.978 2°52.183 18.6168 0.087899 0.460109 -1.697049
2008-04-29 07:33:00 51°14.982 2°52.157 18.6464 0.087899 0.460101 -1.697049
2008-04-29 07:33:05 51°14.987 2°52.132 18.6216 0.087899 0.460094 -1.697049
2008-04-29 07:33:10 51°14.992 2°52.106 18.6214 0.087899 0.460086 -1.697049
2008-04-29 07:33:15 51°14.996 2°52.08 18.6225 0.087899 0.460094 -1.731873
2008-04-29 07:33:20 51°15.001 2°52.055 18.6028 0.087899 0.460094 -1.697049
2008-04-29 07:33:25 51°15.005 2°52.029 18.6248 0.087899 0.460094 -1.697049
2008-04-29 07:33:30 51°15.01 2°52.004 18.6033 0.087899 0.460109 -1.731873
2008-04-29 07:33:35 51°15.014 2°51.978 18.6177 0.087899 0.460124 -1.731873
2008-04-29 07:33:40 51°15.018 2°51.953 18.6238 0.087899 0.46014 -1.731873
2008-04-29 07:33:45 51°15.023 2°51.927 18.6195 0.087899 0.460163 -1.697049
2008-04-29 07:33:50 51°15.027 2°51.902 18.5969 0.087899 0.46017 -1.731873
2008-04-29 07:33:55 51°15.031 2°51.876 18.6285 0.087899 0.46017 -1.731873
2008-04-29 07:34:00 51°15.035 2°51.85 18.5773 0.087899 0.460186 -1.697049
2008-04-29 07:34:05 51°15.04 2°51.825 18.6162 0.087899 0.460193 -1.731873
2008-04-29 07:34:10 51°15.044 2°51.799 18.6163 0.087899 0.460201 -1.731873
2008-04-29 07:34:15 51°15.049 2°51.773 18.6329 0.087899 0.460208 -1.731873
2008-04-29 07:34:20 51°15.054 2°51.748 18.6171 0.087899 0.460208 -1.697049
2008-04-29 07:34:25 51°15.058 2°51.722 18.6378 0.087899 0.460208 -1.697049
2008-04-29 07:34:30 51°15.063 2°51.696 18.6356 0.087899 0.460208 -1.697049
2008-04-29 07:34:35 51°15.067 2°51.671 18.6213 0.087899 0.460216 -1.697049
2008-04-29 07:34:40 51°15.072 2°51.645 18.5989 0.087797 0.459673 -1.697049
2008-04-29 07:34:45 51°15.076 2°51.619 18.6204 0.087797 0.459681 -1.697049
2008-04-29 07:34:50 51°15.081 2°51.593 18.6258 0.087797 0.459688 -1.697049
2008-04-29 07:34:54 51°15.084 2°51.573 18.5904 0.087797 0.459688 -1.697049
2008-04-29 07:35:00 51°15.09 2°51.542 18.621 0.087797 0.459696 -1.697049
2008-04-29 07:35:05 51°15.095 2°51.516 18.6183 0.087797 0.459704 -1.731873
2008-04-29 07:35:10 51°15.1 2°51.491 18.6205 0.087797 0.459719 -1.731873
2008-04-29 07:35:14 51°15.103 2°51.47 18.6449 0.087797 0.459727 -1.697049
2008-04-29 07:35:19 51°15.108 2°51.445 18.5901 0.087797 0.459734 -1.731873
2008-04-29 07:35:25 51°15.113 2°51.414 18.6076 0.087797 0.459734 -1.731873
2008-04-29 07:35:30 51°15.118 2°51.389 18.5944 0.087797 0.459742 -1.731873
2008-04-29 07:35:34 51°15.122 2°51.368 18.6138 0.087797 0.459742 -1.731873
2008-04-29 07:35:39 51°15.126 2°51.343 18.6169 0.087797 0.45975 -1.697049
2008-04-29 07:35:45 51°15.132 2°51.312 18.6046 0.087797 0.459765 -1.731873
2008-04-29 07:35:50 51°15.136 2°51.287 18.6033 0.087797 0.459772 -1.697049
2008-04-29 07:35:54 51°15.14 2°51.267 18.6073 0.087797 0.459772 -1.697049
2008-04-29 07:35:59 51°15.145 2°51.241 18.6123 0.087797 0.45978 -1.731873
2008-04-29 07:36:04 51°15.149 2°51.216 18.6022 0.087797 0.459795 -1.697049
2008-04-29 07:36:10 51°15.155 2°51.185 18.6306 0.087797 0.459803 -1.731873
2008-04-29 07:36:15 51°15.16 2°51.16 18.6034 0.087797 0.459818 -1.731873
2008-04-29 07:36:19 51°15.163 2°51.14 18.6097 0.087797 0.459826 -1.697049
2008-04-29 07:36:25 51°15.169 2°51.109 18.6163 0.087797 0.459826 -1.697049
2008-04-29 07:36:30 51°15.174 2°51.084 18.6079 0.087797 0.459834 -1.731873
2008-04-29 07:36:35 51°15.178 2°51.059 18.6043 0.087797 0.459857 -1.697049
2008-04-29 07:36:40 51°15.183 2°51.033 18.6153 0.087797 0.459864 -1.731873
2008-04-29 07:36:45 51°15.187 2°51.008 18.6051 0.087797 0.459872 -1.697049
2008-04-29 07:36:50 51°15.192 2°50.982 18.6153 0.087797 0.45988 -1.697049
2008-04-29 07:36:54 51°15.196 2°50.962 18.601 0.087797 0.45988 -1.697049
2008-04-29 07:37:00 51°15.201 2°50.932 18.6403 0.087797 0.45988 -1.731873
2008-04-29 07:37:05 51°15.206 2°50.906 18.6017 0.087797 0.459895 -1.731873
2008-04-29 07:37:10 51°15.211 2°50.881 18.6226 0.087797 0.459902 -1.697049
2008-04-29 07:37:14 51°15.214 2°50.861 18.5699 0.087797 0.45991 -1.731873
2008-04-29 07:37:20 51°15.22 2°50.831 18.6189 0.087797 0.459918 -1.731873
2008-04-29 07:37:25 51°15.224 2°50.805 18.5966 0.087797 0.459918 -1.731873
2008-04-29 07:37:30 51°15.229 2°50.78 18.6022 0.087797 0.459925 -1.697049
2008-04-29 07:37:34 51°15.233 2°50.76 18.6181 0.087797 0.459933 -1.697049
2008-04-29 07:37:39 51°15.238 2°50.735 18.5895 0.087797 0.459948 -1.731873
2008-04-29 07:37:45 51°15.244 2°50.704 18.5754 0.087797 0.459964 -1.697049
2008-04-29 07:37:50 51°15.249 2°50.679 18.5808 0.087797 0.459971 -1.697049
2008-04-29 07:37:54 51°15.254 2°50.659 18.5868 0.087797 0.459971 -1.697049
2008-04-29 07:37:59 51°15.259 2°50.634 18.559 0.087797 0.459979 -1.731873
2008-04-29 07:38:04 51°15.265 2°50.61 18.5615 0.087797 0.459994 -1.731873
2008-04-29 07:38:10 51°15.272 2°50.58 18.5229 0.087797 0.460002 -1.731873
2008-04-29 07:38:15 51°15.279 2°50.556 18.589 0.087797 0.46001 -1.697049
2008-04-29 07:38:19 51°15.284 2°50.536 18.5586 0.087797 0.460025 -1.697049
2008-04-29 07:38:25 51°15.292 2°50.507 18.5984 0.087797 0.460025 -1.697049
2008-04-29 07:38:30 51°15.299 2°50.482 18.5865 0.087797 0.460033 -1.697049
2008-04-29 07:38:35 51°15.306 2°50.458 18.5784 0.087797 0.46004 -1.731873
2008-04-29 07:38:39 51°15.311 2°50.439 18.5972 0.087797 0.460056 -1.697049
2008-04-29 07:38:45 51°15.319 2°50.409 18.5905 0.087797 0.460063 -1.697049
2008-04-29 07:38:50 51°15.326 2°50.385 18.5977 0.087797 0.460071 -1.697049
2008-04-29 07:38:54 51°15.331 2°50.366 18.5766 0.087797 0.460071 -1.697049
2008-04-29 07:39:00 51°15.338 2°50.336 18.6063 0.087797 0.460079 -1.731873
2008-04-29 07:39:05 51°15.344 2°50.311 18.5706 0.087797 0.460094 -1.697049
2008-04-29 07:39:10 51°15.35 2°50.286 18.6004 0.087797 0.460094 -1.731873
2008-04-29 07:39:14 51°15.354 2°50.266 18.5779 0.087797 0.460109 -1.731873
2008-04-29 07:39:19 51°15.359 2°50.241 18.6093 0.087797 0.460117 -1.731873
2008-04-29 07:39:25 51°15.365 2°50.211 18.5795 0.087797 0.460117 -1.731873
2008-04-29 07:39:30 51°15.37 2°50.186 18.5957 0.087797 0.460125 -1.731873
2008-04-29 07:39:34 51°15.374 2°50.166 18.5505 0.087797 0.460132 -1.731873
2008-04-29 07:39:39 51°15.378 2°50.141 18.5809 0.087797 0.46014 -1.731873
2008-04-29 07:39:45 51°15.384 2°50.11 18.578 0.087797 0.460155 -1.731873
2008-04-29 07:39:50 51°15.389 2°50.085 18.5925 0.087797 0.460163 -1.731873
2008-04-29 07:39:54 51°15.393 2°50.064 18.5769 0.087797 0.460163 -1.731873
2008-04-29 07:39:59 51°15.399 2°50.039 18.5781 0.087797 0.460178 -1.731873
2008-04-29 07:40:04 51°15.404 2°50.014 18.5818 0.087797 0.460186 -1.731873
2008-04-29 07:40:10 51°15.41 2°49.983 18.5968 0.087797 0.460201 -1.731873
2008-04-29 07:40:14 51°15.414 2°49.963 18.596 0.087797 0.460216 -1.731873
2008-04-29 07:40:19 51°15.419 2°49.938 18.577 0.087797 0.460232 -1.731873
2008-04-29 07:40:24 51°15.424 2°49.912 18.5733 0.087797 0.460232 -1.731873
2008-04-29 07:40:30 51°15.43 2°49.882 18.5849 0.087797 0.460239 -1.697049
2008-04-29 07:40:35 51°15.436 2°49.856 18.5857 0.087797 0.460247 -1.731873
2008-04-29 07:40:39 51°15.44 2°49.836 18.5808 0.087797 0.460255 -1.731873
2008-04-29 07:40:45 51°15.446 2°49.806 18.5361 0.087797 0.460262 -1.731873
2008-04-29 07:40:50 51°15.451 2°49.78 18.5747 0.087797 0.46027 -1.731873
2008-04-29 07:40:55 51°15.456 2°49.755 18.5845 0.087797 0.46027 -1.731873
2008-04-29 07:41:00 51°15.461 2°49.73 18.5646 0.087797 0.460278 -1.731873
2008-04-29 07:41:05 51°15.466 2°49.705 18.5943 0.087797 0.460285 -1.731873
2008-04-29 07:41:10 51°15.471 2°49.679 18.5841 0.087797 0.460293 -1.731873
2008-04-29 07:41:14 51°15.475 2°49.659 18.5835 0.087797 0.460301 -1.731873
2008-04-29 07:41:19 51°15.48 2°49.634 18.5877 0.087694 0.459749 -1.697049
2008-04-29 07:41:25 51°15.486 2°49.603 18.5776 0.087694 0.459749 -1.697049
2008-04-29 07:41:30 51°15.491 2°49.578 18.58 0.087694 0.459765 -1.731873
2008-04-29 07:41:34 51°15.495 2°49.557 18.5694 0.087694 0.459772 -1.731873
2008-04-29 07:41:40 51°15.501 2°49.527 18.57 0.087694 0.45978 -1.731873
2008-04-29 07:41:45 51°15.506 2°49.502 18.5878 0.087694 0.459795 -1.731873
2008-04-29 07:41:50 51°15.51 2°49.476 18.5974 0.087694 0.459803 -1.731873
2008-04-29 07:41:54 51°15.514 2°49.456 18.5693 0.087694 0.459803 -1.731873
2008-04-29 07:41:59 51°15.519 2°49.43 18.55 0.087694 0.459818 -1.731873
2008-04-29 07:42:05 51°15.525 2°49.4 18.5329 0.087694 0.459826 -1.697049
2008-04-29 07:42:10 51°15.53 2°49.374 18.5265 0.087694 0.459834 -1.731873
2008-04-29 07:42:14 51°15.535 2°49.354 18.5588 0.087694 0.459841 -1.697049
2008-04-29 07:42:19 51°15.54 2°49.329 18.567 0.087694 0.459857 -1.731873
2008-04-29 07:42:24 51°15.546 2°49.304 18.5532 0.087694 0.459857 -1.731873
2008-04-29 07:42:30 51°15.552 2°49.273 18.5387 0.087694 0.459872 -1.731873
2008-04-29 07:42:35 51°15.558 2°49.248 18.5388 0.087694 0.459887 -1.731873
2008-04-29 07:42:39 51°15.562 2°49.228 18.5759 0.087694 0.459895 -1.731873
2008-04-29 07:42:45 51°15.569 2°49.198 18.5815 0.087694 0.45991 -1.731873
2008-04-29 07:42:50 51°15.575 2°49.172 18.5592 0.087694 0.459918 -1.731873
2008-04-29 07:42:55 51°15.581 2°49.147 18.5592 0.087694 0.459918 -1.731873
2008-04-29 07:43:00 51°15.586 2°49.122 18.5727 0.087694 0.459926 -1.731873
2008-04-29 07:43:05 51°15.592 2°49.097 18.5672 0.087694 0.459933 -1.731873
2008-04-29 07:43:10 51°15.598 2°49.072 18.5525 0.087694 0.459949 -1.731873
2008-04-29 07:43:15 51°15.603 2°49.046 18.5407 0.087694 0.459956 -1.731873
2008-04-29 07:43:19 51°15.608 2°49.026 18.5913 0.087694 0.459964 -1.731873
2008-04-29 07:43:25 51°15.615 2°48.996 18.5826 0.087694 0.459964 -1.731873
2008-04-29 07:43:30 51°15.621 2°48.971 18.5792 0.087694 0.459972 -1.731873
2008-04-29 07:43:34 51°15.625 2°48.951 18.56 0.087694 0.459987 -1.731873
2008-04-29 07:43:40 51°15.632 2°48.92 18.5764 0.087694 0.459995 -1.731873
2008-04-29 07:43:45 51°15.638 2°48.895 18.5688 0.087694 0.46001 -1.731873
2008-04-29 07:43:50 51°15.644 2°48.87 18.5764 0.087694 0.460018 -1.697049
2008-04-29 07:43:54 51°15.649 2°48.85 18.5698 0.087694 0.460018 -1.697049
2008-04-29 07:44:00 51°15.655 2°48.819 18.5556 0.087694 0.460025 -1.731873
2008-04-29 07:44:05 51°15.661 2°48.794 18.5654 0.087694 0.460048 -1.731873
2008-04-29 07:44:10 51°15.667 2°48.768 18.5679 0.087694 0.460056 -1.697049
2008-04-29 07:44:14 51°15.672 2°48.748 18.5649 0.087694 0.460064 -1.731873
2008-04-29 07:44:19 51°15.677 2°48.723 18.5679 0.087694 0.460079 -1.731873
2008-04-29 07:44:25 51°15.684 2°48.692 18.5853 0.087694 0.460079 -1.731873
2008-04-29 07:44:30 51°15.69 2°48.667 18.5921 0.087694 0.460087 -1.731873
2008-04-29 07:44:34 51°15.693 2°48.646 18.5631 0.087694 0.460102 -1.731873
2008-04-29 07:44:39 51°15.698 2°48.621 18.5914 0.087694 0.46011 -1.731873
2008-04-29 07:44:44 51°15.703 2°48.595 18.5738 0.087694 0.460117 -1.731873
2008-04-29 07:44:50 51°15.709 2°48.564 18.5888 0.087694 0.460125 -1.731873
2008-04-29 07:44:55 51°15.713 2°48.539 18.58 0.087694 0.460125 -1.731873
2008-04-29 07:44:59 51°15.717 2°48.518 18.5762 0.087694 0.460133 -1.731873
2008-04-29 07:45:05 51°15.722 2°48.487 18.58 0.087694 0.46014 -1.731873
2008-04-29 07:45:10 51°15.726 2°48.462 18.5718 0.087694 0.460148 -1.731873
2008-04-29 07:45:15 51°15.731 2°48.436 18.5692 0.087694 0.460156 -1.731873
2008-04-29 07:45:19 51°15.735 2°48.416 18.566 0.087694 0.460171 -1.731873
2008-04-29 07:45:25 51°15.74 2°48.385 18.5738 0.087694 0.460171 -1.731873
2008-04-29 07:45:30 51°15.745 2°48.36 18.5515 0.087694 0.460186 -1.731873
2008-04-29 07:45:35 51°15.75 2°48.334 18.5754 0.087694 0.460194 -1.731873
2008-04-29 07:45:39 51°15.754 2°48.314 18.5454 0.087694 0.460202 -1.731873
2008-04-29 07:45:45 51°15.759 2°48.284 18.5591 0.087694 0.460217 -1.731873
2008-04-29 07:45:50 51°15.764 2°48.258 18.5614 0.087694 0.460225 -1.731873
2008-04-29 07:45:54 51°15.768 2°48.238 18.5663 0.087694 0.460225 -1.731873
2008-04-29 07:46:00 51°15.774 2°48.208 18.573 0.087694 0.460232 -1.731873
2008-04-29 07:46:05 51°15.778 2°48.183 18.5814 0.087694 0.460248 -1.731873
2008-04-29 07:46:10 51°15.783 2°48.158 18.5669 0.087694 0.460255 -1.731873
2008-04-29 07:46:14 51°15.787 2°48.138 18.5644 0.087694 0.460263 -1.731873
2008-04-29 07:46:19 51°15.792 2°48.112 18.5743 0.087591 0.459711 -1.731873
2008-04-29 07:46:25 51°15.797 2°48.082 18.5594 0.087591 0.459711 -1.731873
2008-04-29 07:46:30 51°15.802 2°48.057 18.5592 0.087591 0.459726 -1.731873
2008-04-29 07:46:34 51°15.806 2°48.037 18.5428 0.087694 0.460294 -1.731873
2008-04-29 07:46:39 51°15.811 2°48.012 18.5555 0.087591 0.459742 -1.731873
2008-04-29 07:46:45 51°15.817 2°47.982 18.543 0.087591 0.459749 -1.731873
2008-04-29 07:46:50 51°15.822 2°47.956 18.5375 0.087591 0.459765 -1.731873
2008-04-29 07:46:55 51°15.827 2°47.931 18.5435 0.087591 0.459765 -1.731873
2008-04-29 07:46:59 51°15.831 2°47.911 18.55 0.087591 0.459772 -1.731873
2008-04-29 07:47:05 51°15.837 2°47.881 18.547 0.087591 0.45978 -1.731873
2008-04-29 07:47:10 51°15.842 2°47.856 18.5767 0.087591 0.459788 -1.731873
2008-04-29 07:47:15 51°15.847 2°47.83 18.5423 0.087591 0.459803 -1.731873
2008-04-29 07:47:19 51°15.851 2°47.81 18.5627 0.087591 0.459811 -1.731873
2008-04-29 07:47:25 51°15.857 2°47.78 18.5494 0.087591 0.459811 -1.731873
2008-04-29 07:47:30 51°15.863 2°47.755 18.5638 0.087591 0.459826 -1.731873
2008-04-29 07:47:35 51°15.867 2°47.73 18.57 0.087591 0.459834 -1.731873
2008-04-29 07:47:39 51°15.872 2°47.71 18.575 0.087591 0.459849 -1.731873
2008-04-29 07:47:45 51°15.878 2°47.679 18.5342 0.087591 0.459865 -1.731873
2008-04-29 07:47:50 51°15.883 2°47.655 18.5735 0.087591 0.459872 -1.731873
2008-04-29 07:47:55 51°15.888 2°47.63 18.5434 0.087591 0.459872 -1.731873
2008-04-29 07:48:00 51°15.893 2°47.605 18.5542 0.087591 0.45988 -1.731873
2008-04-29 07:48:05 51°15.898 2°47.58 18.5475 0.087591 0.459895 -1.697049
2008-04-29 07:48:10 51°15.903 2°47.555 18.5714 0.087591 0.459895 -1.731873
2008-04-29 07:48:14 51°15.908 2°47.535 18.5488 0.087591 0.459911 -1.731873
2008-04-29 07:48:20 51°15.914 2°47.505 18.5563 0.087591 0.459918 -1.731873
2008-04-29 07:48:25 51°15.919 2°47.48 18.557 0.087591 0.459918 -1.731873
2008-04-29 07:48:30 51°15.925 2°47.455 18.566 0.087591 0.459926 -1.731873
2008-04-29 07:48:34 51°15.929 2°47.435 18.5707 0.087591 0.459941 -1.731873
2008-04-29 07:48:39 51°15.934 2°47.411 18.5614 0.087591 0.459949 -1.731873
2008-04-29 07:48:45 51°15.94 2°47.381 18.5613 0.087591 0.459957 -1.731873
2008-04-29 07:48:50 51°15.945 2°47.356 18.5562 0.087591 0.459964 -1.731873
2008-04-29 07:48:54 51°15.95 2°47.336 18.5414 0.087591 0.459964 -1.731873
2008-04-29 07:48:59 51°15.955 2°47.311 18.5565 0.087591 0.45998 -1.697049
2008-04-29 07:49:04 51°15.96 2°47.286 18.5385 0.087591 0.45998 -1.731873
2008-04-29 07:49:10 51°15.966 2°47.256 18.5516 0.087591 0.459995 -1.731873
2008-04-29 07:49:15 51°15.971 2°47.232 18.5696 0.087591 0.460003 -1.731873
2008-04-29 07:49:19 51°15.976 2°47.212 18.5502 0.087591 0.460018 -1.731873
2008-04-29 07:49:25 51°15.982 2°47.182 18.5584 0.087591 0.460018 -1.731873
2008-04-29 07:49:30 51°15.988 2°47.157 18.5292 0.087591 0.460026 -1.731873
2008-04-29 07:49:34 51°15.993 2°47.138 18.5644 0.087591 0.460033 -1.731873
2008-04-29 07:49:39 51°15.998 2°47.112 18.5538 0.087591 0.460049 -1.731873
2008-04-29 07:49:45 51°16.005 2°47.083 18.5748 0.087591 0.460057 -1.731873
2008-04-29 07:49:50 51°16.011 2°47.058 18.54 0.087591 0.460072 -1.731873
2008-04-29 07:49:55 51°16.016 2°47.033 18.5706 0.087591 0.460072 -1.731873
2008-04-29 07:49:59 51°16.02 2°47.013 18.5449 0.087591 0.460087 -1.731873
2008-04-29 07:50:05 51°16.026 2°46.983 18.5738 0.087591 0.460095 -1.731873
2008-04-29 07:50:10 51°16.032 2°46.959 18.5374 0.087591 0.460103 -1.731873
2008-04-29 07:50:15 51°16.037 2°46.934 18.5416 0.087591 0.46011 -1.731873
2008-04-29 07:50:20 51°16.042 2°46.909 18.5668 0.087591 0.460118 -1.697049
2008-04-29 07:50:25 51°16.048 2°46.884 18.5615 0.087591 0.460118 -1.697049
2008-04-29 07:50:30 51°16.053 2°46.859 18.5682 0.087591 0.460118 -1.731873
2008-04-29 07:50:34 51°16.057 2°46.839 18.5396 0.087591 0.460141 -1.731873
2008-04-29 07:50:40 51°16.063 2°46.809 18.5523 0.087591 0.460141 -1.731873
2008-04-29 07:50:45 51°16.069 2°46.784 18.5511 0.087591 0.460149 -1.731873
2008-04-29 07:50:50 51°16.075 2°46.76 18.5346 0.087591 0.460164 -1.731873
2008-04-29 07:50:54 51°16.079 2°46.739 18.5431 0.087591 0.460164 -1.731873
2008-04-29 07:51:00 51°16.086 2°46.71 18.5679 0.087591 0.460172 -1.731873
2008-04-29 07:51:05 51°16.092 2°46.685 18.537 0.087591 0.460187 -1.731873
2008-04-29 07:51:10 51°16.098 2°46.66 18.5451 0.087591 0.460195 -1.731873
2008-04-29 07:51:15 51°16.104 2°46.635 18.5519 0.087488 0.45965 -1.731873
2008-04-29 07:51:19 51°16.109 2°46.615 18.5544 0.087488 0.459658 -1.731873
2008-04-29 07:51:25 51°16.116 2°46.585 18.567 0.087488 0.459658 -1.731873
2008-04-29 07:51:30 51°16.122 2°46.56 18.565 0.087488 0.459665 -1.731873
2008-04-29 07:51:34 51°16.127 2°46.541 18.5695 0.087488 0.459681 -1.731873
2008-04-29 07:51:39 51°16.133 2°46.516 18.537 0.087488 0.459688 -1.731873
2008-04-29 07:51:45 51°16.14 2°46.486 18.5525 0.087488 0.459696 -1.731873
2008-04-29 07:51:50 51°16.145 2°46.461 18.5638 0.087488 0.459704 -1.731873
2008-04-29 07:51:55 51°16.151 2°46.436 18.5787 0.087488 0.459704 -1.731873
2008-04-29 07:51:59 51°16.155 2°46.416 18.5493 0.087488 0.459719 -1.731873
2008-04-29 07:52:05 51°16.162 2°46.386 18.5837 0.087488 0.459719 -1.731873
2008-04-29 07:52:10 51°16.167 2°46.36 18.537 0.087488 0.459734 -1.731873
2008-04-29 07:52:15 51°16.172 2°46.335 18.5521 0.087488 0.459742 -1.731873
2008-04-29 07:52:20 51°16.177 2°46.31 18.5671 0.087488 0.459757 -1.731873
2008-04-29 07:52:25 51°16.182 2°46.285 18.541 0.087488 0.459757 -1.731873
2008-04-29 07:52:30 51°16.187 2°46.26 18.5812 0.087488 0.459757 -1.731873
2008-04-29 07:52:34 51°16.191 2°46.24 18.5662 0.087488 0.459773 -1.731873
2008-04-29 07:52:40 51°16.198 2°46.21 18.5803 0.087488 0.459781 -1.731873
2008-04-29 07:52:45 51°16.203 2°46.184 18.5732 0.087488 0.459796 -1.731873
2008-04-29 07:52:50 51°16.208 2°46.159 18.5576 0.087488 0.459811 -1.731873
2008-04-29 07:52:54 51°16.212 2°46.139 18.5659 0.087488 0.459811 -1.731873
2008-04-29 07:53:00 51°16.218 2°46.109 18.5751 0.087488 0.459819 -1.731873
2008-04-29 07:53:05 51°16.223 2°46.084 18.5557 0.087488 0.459827 -1.731873
2008-04-29 07:53:10 51°16.228 2°46.058 18.5728 0.087488 0.459842 -1.731873
2008-04-29 07:53:14 51°16.232 2°46.038 18.5578 0.087488 0.45985 -1.731873
2008-04-29 07:53:19 51°16.238 2°46.013 18.5732 0.087488 0.459857 -1.731873
2008-04-29 07:53:25 51°16.244 2°45.983 18.5732 0.087488 0.459857 -1.731873
2008-04-29 07:53:30 51°16.249 2°45.958 18.5731 0.087488 0.459865 -1.731873
2008-04-29 07:53:34 51°16.253 2°45.938 18.5603 0.087488 0.45988 -1.731873
2008-04-29 07:53:39 51°16.258 2°45.912 18.5687 0.087488 0.459888 -1.731873
2008-04-29 07:53:45 51°16.264 2°45.882 18.5567 0.087488 0.459904 -1.731873
2008-04-29 07:53:50 51°16.27 2°45.857 18.5705 0.087488 0.459911 -1.731873
2008-04-29 07:53:54 51°16.274 2°45.837 18.5519 0.087488 0.459911 -1.731873
2008-04-29 07:53:59 51°16.28 2°45.811 18.5773 0.087488 0.459919 -1.731873
2008-04-29 07:54:04 51°16.285 2°45.786 18.5644 0.087488 0.459927 -1.731873
2008-04-29 07:54:10 51°16.291 2°45.756 18.5643 0.087488 0.459942 -1.731873
2008-04-29 07:54:15 51°16.296 2°45.731 18.5582 0.087488 0.45995 -1.731873
2008-04-29 07:54:19 51°16.3 2°45.71 18.5622 0.087488 0.459957 -1.731873
2008-04-29 07:54:25 51°16.307 2°45.68 18.5802 0.087488 0.459957 -1.731873
2008-04-29 07:54:30 51°16.312 2°45.655 18.5753 0.087488 0.459973 -1.731873
2008-04-29 07:54:35 51°16.318 2°45.629 18.5876 0.087488 0.45998 -1.731873
2008-04-29 07:54:40 51°16.323 2°45.604 18.5736 0.087488 0.459996 -1.731873
2008-04-29 07:54:45 51°16.328 2°45.579 18.5645 0.087488 0.460003 -1.731873
2008-04-29 07:54:50 51°16.334 2°45.554 18.5738 0.087488 0.460011 -1.731873
2008-04-29 07:54:55 51°16.339 2°45.528 18.5724 0.087488 0.460011 -1.731873
2008-04-29 07:55:00 51°16.345 2°45.503 18.556 0.087488 0.460019 -1.731873
2008-04-29 07:55:05 51°16.351 2°45.478 18.5667 0.087488 0.460027 -1.731873
2008-04-29 07:55:10 51°16.357 2°45.453 18.5674 0.087488 0.460042 -1.731873
2008-04-29 07:55:14 51°16.362 2°45.433 18.545 0.087488 0.46005 -1.731873
2008-04-29 07:55:20 51°16.369 2°45.403 18.5425 0.087488 0.460065 -1.731873
2008-04-29 07:55:25 51°16.375 2°45.378 18.5665 0.087488 0.460065 -1.731873
2008-04-29 07:55:30 51°16.382 2°45.354 18.5686 0.087488 0.46008 -1.731873
2008-04-29 07:55:34 51°16.387 2°45.334 18.5845 0.087488 0.460096 -1.731873
2008-04-29 07:55:39 51°16.393 2°45.309 18.5502 0.087488 0.460111 -1.731873
2008-04-29 07:55:45 51°16.401 2°45.279 18.5779 0.087488 0.460119 -1.731873
2008-04-29 07:55:50 51°16.407 2°45.255 18.5573 0.087488 0.460134 -1.731873
2008-04-29 07:55:54 51°16.412 2°45.235 18.5634 0.087488 0.460134 -1.731873
2008-04-29 07:55:59 51°16.419 2°45.21 18.5175 0.087488 0.46015 -1.731873
2008-04-29 07:56:04 51°16.425 2°45.185 18.5081 0.087488 0.460157 -1.731873
2008-04-29 07:56:10 51°16.435 2°45.156 18.5174 0.087488 0.460157 -1.731873
2008-04-29 07:56:15 51°16.442 2°45.132 18.5346 0.087488 0.460173 -1.731873
2008-04-29 07:56:19 51°16.449 2°45.113 18.5226 0.087488 0.460181 -1.731873
2008-04-29 07:56:25 51°16.459 2°45.085 18.5783 0.087488 0.460181 -1.731873
2008-04-29 07:56:30 51°16.468 2°45.062 18.5592 0.087385 0.459643 -1.731873
2008-04-29 07:56:35 51°16.477 2°45.038 18.5633 0.087385 0.459658 -1.731873
2008-04-29 07:56:40 51°16.486 2°45.015 18.5544 0.087385 0.459673 -1.731873
2008-04-29 07:56:45 51°16.494 2°44.992 18.5473 0.087385 0.459673 -1.731873
2008-04-29 07:56:50 51°16.504 2°44.969 18.5484 0.087385 0.459681 -1.731873
2008-04-29 07:56:55 51°16.513 2°44.946 18.5537 0.087385 0.459681 -1.731873
2008-04-29 07:57:00 51°16.523 2°44.924 18.5454 0.087385 0.459696 -1.731873
2008-04-29 07:57:05 51°16.533 2°44.901 18.5683 0.087385 0.459704 -1.731873
2008-04-29 07:57:10 51°16.543 2°44.879 18.5586 0.087385 0.45972 -1.731873
2008-04-29 07:57:14 51°16.551 2°44.862 18.5716 0.087385 0.459727 -1.731873
2008-04-29 07:57:20 51°16.563 2°44.835 18.5697 0.087385 0.459743 -1.731873
2008-04-29 07:57:25 51°16.573 2°44.813 18.5678 0.087385 0.459743 -1.731873
2008-04-29 07:57:30 51°16.583 2°44.79 18.5692 0.087385 0.45975 -1.731873
2008-04-29 07:57:34 51°16.591 2°44.772 18.5676 0.087385 0.459758 -1.731873
2008-04-29 07:57:40 51°16.603 2°44.745 18.5627 0.087385 0.459766 -1.731873
2008-04-29 07:57:45 51°16.613 2°44.723 18.5529 0.087385 0.459781 -1.731873
2008-04-29 07:57:50 51°16.623 2°44.7 18.5718 0.087385 0.459789 -1.731873
2008-04-29 07:57:54 51°16.631 2°44.682 18.5591 0.087385 0.459789 -1.731873
2008-04-29 07:57:59 51°16.641 2°44.66 18.5741 0.087385 0.459797 -1.731873
2008-04-29 07:58:05 51°16.653 2°44.633 18.5676 0.087385 0.459812 -1.731873
2008-04-29 07:58:10 51°16.662 2°44.61 18.5657 0.087385 0.45982 -1.731873
2008-04-29 07:58:14 51°16.67 2°44.592 18.5672 0.087385 0.459835 -1.731873
2008-04-29 07:58:19 51°16.679 2°44.569 18.5713 0.087385 0.45985 -1.731873
2008-04-29 07:58:25 51°16.691 2°44.542 18.5718 0.087385 0.45985 -1.731873
2008-04-29 07:58:30 51°16.7 2°44.519 18.5908 0.087385 0.459858 -1.731873
2008-04-29 07:58:35 51°16.709 2°44.496 18.5897 0.087385 0.459874 -1.731873
2008-04-29 07:58:39 51°16.717 2°44.477 18.5733 0.087385 0.459874 -1.731873
2008-04-29 07:58:45 51°16.728 2°44.449 18.5985 0.087385 0.459889 -1.731873
2008-04-29 07:58:50 51°16.737 2°44.425 18.5544 0.087385 0.459897 -1.731873
2008-04-29 07:58:55 51°16.746 2°44.402 18.5659 0.087385 0.459897 -1.731873
2008-04-29 07:59:00 51°16.755 2°44.379 18.5756 0.087385 0.459904 -1.731873
2008-04-29 07:59:05 51°16.764 2°44.355 18.5792 0.087385 0.459912 -1.731873
2008-04-29 07:59:10 51°16.773 2°44.332 18.5462 0.087385 0.459927 -1.731873
2008-04-29 07:59:15 51°16.783 2°44.309 18.5778 0.087385 0.459935 -1.731873
2008-04-29 07:59:19 51°16.79 2°44.29 18.569 0.087385 0.459943 -1.731873
2008-04-29 07:59:25 51°16.802 2°44.262 18.5758 0.087385 0.459943 -1.731873
2008-04-29 07:59:30 51°16.811 2°44.239 18.5654 0.087385 0.459951 -1.731873
2008-04-29 07:59:34 51°16.819 2°44.221 18.5918 0.087385 0.459951 -1.731873
2008-04-29 07:59:40 51°16.83 2°44.193 18.5754 0.087385 0.459966 -1.731873
2008-04-29 07:59:45 51°16.84 2°44.171 18.5897 0.087385 0.459981 -1.731873
2008-04-29 07:59:50 51°16.849 2°44.147 18.5564 0.087385 0.459989 -1.731873
2008-04-29 07:59:54 51°16.857 2°44.129 18.5928 0.087385 0.459989 -1.731873
2008-04-29 07:59:59 51°16.866 2°44.106 18.5689 0.087385 0.460004 -1.731873
2008-04-29 08:00:05 51°16.877 2°44.078 18.58 0.087385 0.46002 -1.731873
2008-04-29 08:00:10 51°16.886 2°44.054 18.5737 0.087385 0.460035 -1.731873
2008-04-29 08:00:14 51°16.893 2°44.036 18.5795 0.087385 0.460043 -1.731873
2008-04-29 08:00:19 51°16.902 2°44.012 18.5709 0.087385 0.460051 -1.731873
2008-04-29 08:00:25 51°16.913 2°43.985 18.5675 0.087385 0.460051 -1.731873
2008-04-29 08:00:30 51°16.923 2°43.962 18.5761 0.087385 0.460051 -1.731873
2008-04-29 08:00:35 51°16.932 2°43.938 18.5848 0.087385 0.460066 -1.731873
2008-04-29 08:00:39 51°16.94 2°43.92 18.5728 0.087385 0.460074 -1.731873
2008-04-29 08:00:45 51°16.951 2°43.893 18.5658 0.087385 0.460089 -1.731873
2008-04-29 08:00:50 51°16.96 2°43.87 18.5795 0.087385 0.460105 -1.731873
2008-04-29 08:00:55 51°16.97 2°43.846 18.5885 0.087385 0.460105 -1.731873
2008-04-29 08:01:00 51°16.979 2°43.823 18.5751 0.087385 0.46012 -1.731873
2008-04-29 08:01:05 51°16.988 2°43.8 18.5887 0.087385 0.460143 -1.731873
2008-04-29 08:01:10 51°16.997 2°43.777 18.5777 0.087385 0.460151 -1.731873
2008-04-29 08:01:15 51°17.006 2°43.754 18.585 0.087385 0.460166 -1.731873
2008-04-29 08:01:19 51°17.013 2°43.735 18.5934 0.087282 0.459612 -1.731873
2008-04-29 08:01:25 51°17.023 2°43.706 18.564 0.087282 0.459612 -1.731873
2008-04-29 08:01:30 51°17.033 2°43.683 18.5703 0.087282 0.45962 -1.731873
2008-04-29 08:01:35 51°17.042 2°43.66 18.5752 0.087282 0.45962 -1.731873
2008-04-29 08:01:40 51°17.051 2°43.637 18.5649 0.087282 0.459636 -1.731873
2008-04-29 08:01:45 51°17.06 2°43.613 18.5423 0.087282 0.459643 -1.731873
2008-04-29 08:01:50 51°17.069 2°43.59 18.5837 0.087282 0.459659 -1.731873
2008-04-29 08:01:55 51°17.078 2°43.567 18.5552 0.087282 0.459659 -1.731873
2008-04-29 08:02:00 51°17.087 2°43.544 18.5699 0.087282 0.459674 -1.731873
2008-04-29 08:02:05 51°17.097 2°43.521 18.5693 0.087282 0.459682 -1.731873
2008-04-29 08:02:10 51°17.106 2°43.498 18.5861 0.087282 0.459697 -1.731873
2008-04-29 08:02:14 51°17.114 2°43.48 18.5781 0.087282 0.459713 -1.731873
2008-04-29 08:02:19 51°17.123 2°43.457 18.5769 0.087282 0.45972 -1.731873
2008-04-29 08:02:25 51°17.134 2°43.429 18.5997 0.087282 0.45972 -1.731873
2008-04-29 08:02:30 51°17.143 2°43.406 18.5954 0.087282 0.459736 -1.731873
2008-04-29 08:02:34 51°17.15 2°43.387 18.5941 0.087282 0.459743 -1.731873
2008-04-29 08:02:39 51°17.159 2°43.364 18.5689 0.087282 0.459759 -1.731873
2008-04-29 08:02:45 51°17.17 2°43.336 18.5851 0.087282 0.459767 -1.731873
2008-04-29 08:02:50 51°17.178 2°43.313 18.5883 0.087282 0.459767 -1.731873
2008-04-29 08:02:55 51°17.187 2°43.289 18.5862 0.087282 0.459767 -1.731873
2008-04-29 08:02:59 51°17.194 2°43.27 18.5705 0.087282 0.459782 -1.731873
2008-04-29 08:03:05 51°17.205 2°43.243 18.589 0.087282 0.45979 -1.731873
2008-04-29 08:03:10 51°17.214 2°43.22 18.5869 0.087282 0.459805 -1.731873
2008-04-29 08:03:15 51°17.223 2°43.197 18.585 0.087282 0.459821 -1.731873
2008-04-29 08:03:19 51°17.23 2°43.178 18.5771 0.087282 0.459828 -1.731873
2008-04-29 08:03:25 51°17.241 2°43.151 18.5982 0.087282 0.459828 -1.731873
2008-04-29 08:03:30 51°17.25 2°43.128 18.573 0.087282 0.459844 -1.731873
2008-04-29 08:03:35 51°17.26 2°43.106 18.5822 0.087282 0.459851 -1.731873
2008-04-29 08:03:39 51°17.267 2°43.087 18.5945 0.087282 0.459867 -1.731873
2008-04-29 08:03:45 51°17.278 2°43.06 18.5595 0.087282 0.459882 -1.731873
2008-04-29 08:03:50 51°17.288 2°43.037 18.5995 0.087282 0.45989 -1.731873
2008-04-29 08:03:55 51°17.296 2°43.014 18.5758 0.087282 0.45989 -1.731873
2008-04-29 08:04:00 51°17.306 2°42.991 18.5725 0.087282 0.459898 -1.731873
2008-04-29 08:04:05 51°17.316 2°42.969 18.5791 0.087282 0.459898 -1.731873
2008-04-29 08:04:10 51°17.325 2°42.946 18.5582 0.087282 0.459913 -1.731873
2008-04-29 08:04:14 51°17.333 2°42.929 18.5837 0.087282 0.459913 -1.731873
2008-04-29 08:04:20 51°17.345 2°42.903 18.5818 0.087282 0.459929 -1.731873
2008-04-29 08:04:25 51°17.355 2°42.881 18.5899 0.087282 0.459929 -1.731873
2008-04-29 08:04:30 51°17.366 2°42.859 18.6132 0.087282 0.459936 -1.731873
2008-04-29 08:04:34 51°17.373 2°42.841 18.5935 0.087282 0.459959 -1.731873
2008-04-29 08:04:39 51°17.383 2°42.819 18.5781 0.087282 0.459967 -1.731873
2008-04-29 08:04:45 51°17.394 2°42.793 18.5924 0.087282 0.459983 -1.731873
2008-04-29 08:04:50 51°17.404 2°42.77 18.5802 0.087282 0.45999 -1.731873
2008-04-29 08:04:55 51°17.413 2°42.747 18.5712 0.087282 0.45999 -1.731873
2008-04-29 08:04:59 51°17.421 2°42.729 18.5724 0.087282 0.460006 -1.731873
2008-04-29 08:05:05 51°17.432 2°42.702 18.5884 0.087282 0.460021 -1.731873
2008-04-29 08:05:10 51°17.442 2°42.678 18.5871 0.087282 0.460037 -1.766697
2008-04-29 08:05:15 51°17.451 2°42.656 18.5617 0.087282 0.460044 -1.731873
2008-04-29 08:05:19 51°17.459 2°42.638 18.5868 0.087282 0.46006 -1.731873
2008-04-29 08:05:24 51°17.469 2°42.616 18.5726 0.087282 0.46006 -1.731873
2008-04-29 08:05:30 51°17.481 2°42.589 18.5841 0.087282 0.46006 -1.731873
2008-04-29 08:05:34 51°17.489 2°42.571 18.5867 0.087282 0.460075 -1.731873
2008-04-29 08:05:39 51°17.499 2°42.549 18.5793 0.087282 0.460083 -1.731873
2008-04-29 08:05:44 51°17.509 2°42.527 18.5769 0.087282 0.460091 -1.731873
2008-04-29 08:05:49 51°17.519 2°42.504 18.5933 0.087282 0.460098 -1.731873
2008-04-29 08:05:54 51°17.529 2°42.482 18.6003 0.087282 0.460098 -1.731873
2008-04-29 08:05:58 51°17.537 2°42.463 18.5948 0.087282 0.460114 -1.731873
2008-04-29 08:06:03 51°17.547 2°42.44 18.6011 0.087282 0.460122 -1.731873
2008-04-29 08:06:08 51°17.556 2°42.417 18.596 0.087282 0.460137 -1.731873
2008-04-29 08:06:13 51°17.566 2°42.394 18.6024 0.087282 0.460145 -1.731873
2008-04-29 08:06:18 51°17.576 2°42.371 18.5795 0.087282 0.460152 -1.731873
2008-04-29 08:06:23 51°17.586 2°42.348 18.5786 0.087282 0.460152 -1.731873
2008-04-29 08:06:27 51°17.593 2°42.33 18.5963 0.087282 0.46016 -1.731873
2008-04-29 08:06:32 51°17.604 2°42.308 18.5997 0.087282 0.460168 -1.731873
2008-04-29 08:06:38 51°17.616 2°42.281 18.5827 0.087282 0.460183 -1.731873
2008-04-29 08:06:42 51°17.625 2°42.263 18.6022 0.087179 0.459629 -1.731873
2008-04-29 08:06:47 51°17.635 2°42.24 18.6008 0.087282 0.460199 -1.731873
2008-04-29 08:06:52 51°17.646 2°42.218 18.5969 0.087282 0.460199 -1.731873
2008-04-29 08:06:57 51°17.656 2°42.195 18.614 0.087282 0.460206 -1.731873
2008-04-29 08:07:02 51°17.667 2°42.173 18.5814 0.087179 0.459667 -1.731873
2008-04-29 08:07:06 51°17.675 2°42.155 18.6014 0.087179 0.459667 -1.731873
2008-04-29 08:07:11 51°17.686 2°42.133 18.6205 0.087179 0.459683 -1.731873
2008-04-29 08:07:16 51°17.697 2°42.11 18.6019 0.087179 0.459683 -1.731873
2008-04-29 08:07:21 51°17.707 2°42.087 18.5953 0.087179 0.459683 -1.731873
2008-04-29 08:07:26 51°17.718 2°42.065 18.6113 0.087179 0.45969 -1.731873
2008-04-29 08:07:31 51°17.728 2°42.042 18.6039 0.087179 0.459706 -1.731873
2008-04-29 08:07:36 51°17.738 2°42.019 18.6015 0.087179 0.459706 -1.731873
2008-04-29 08:07:41 51°17.749 2°41.997 18.6006 0.087179 0.459729 -1.766697
2008-04-29 08:07:46 51°17.759 2°41.974 18.5984 0.087179 0.459729 -1.731873
2008-04-29 08:07:51 51°17.77 2°41.951 18.608 0.087179 0.459729 -1.731873
2008-04-29 08:07:56 51°17.78 2°41.928 18.5998 0.087179 0.459737 -1.731873
2008-04-29 08:08:01 51°17.791 2°41.906 18.6052 0.087179 0.459752 -1.731873
2008-04-29 08:08:06 51°17.802 2°41.884 18.6073 0.087179 0.45976 -1.731873
2008-04-29 08:08:11 51°17.812 2°41.862 18.6111 0.087179 0.459775 -1.731873
2008-04-29 08:08:16 51°17.823 2°41.839 18.6035 0.087179 0.459783 -1.731873
2008-04-29 08:08:21 51°17.833 2°41.817 18.6103 0.087179 0.459783 -1.731873
2008-04-29 08:08:26 51°17.844 2°41.794 18.6001 0.087179 0.459799 -1.731873
2008-04-29 08:08:31 51°17.854 2°41.771 18.6085 0.087179 0.459806 -1.731873
2008-04-29 08:08:36 51°17.865 2°41.749 18.602 0.087179 0.459814 -1.731873
2008-04-29 08:08:41 51°17.875 2°41.726 18.6196 0.087179 0.459829 -1.731873
2008-04-29 08:08:46 51°17.885 2°41.703 18.6277 0.087179 0.459845 -1.731873
2008-04-29 08:08:51 51°17.895 2°41.681 18.6042 0.087179 0.459845 -1.731873
2008-04-29 08:08:56 51°17.904 2°41.657 18.618 0.087179 0.459845 -1.731873
2008-04-29 08:09:02 51°17.915 2°41.629 18.5966 0.087179 0.459853 -1.731873
2008-04-29 08:09:06 51°17.923 2°41.611 18.6019 0.087179 0.459853 -1.731873
2008-04-29 08:09:11 51°17.932 2°41.588 18.6144 0.087179 0.459853 -1.731873
2008-04-29 08:09:16 51°17.942 2°41.565 18.6161 0.087179 0.45986 -1.731873
2008-04-29 08:09:22 51°17.954 2°41.537 18.6165 0.087179 0.45986 -1.731873
2008-04-29 08:09:26 51°17.962 2°41.519 18.6233 0.087179 0.459876 -1.731873
2008-04-29 08:09:31 51°17.971 2°41.496 18.6213 0.087179 0.459884 -1.731873
2008-04-29 08:09:36 51°17.981 2°41.473 18.6164 0.087179 0.459899 -1.731873
2008-04-29 08:09:41 51°17.991 2°41.451 18.6119 0.087179 0.459914 -1.731873
2008-04-29 08:09:46 51°18 2°41.428 18.6129 0.087179 0.459922 -1.731873
2008-04-29 08:09:51 51°18.009 2°41.404 18.6143 0.087179 0.459922 -1.731873
2008-04-29 08:09:56 51°18.019 2°41.382 18.6141 0.087179 0.459938 -1.731873
2008-04-29 08:10:01 51°18.029 2°41.359 18.6116 0.087179 0.459938 -1.731873
2008-04-29 08:10:06 51°18.038 2°41.336 18.5937 0.087179 0.459961 -1.731873
2008-04-29 08:10:11 51°18.048 2°41.313 18.6171 0.087179 0.459961 -1.731873
2008-04-29 08:10:16 51°18.058 2°41.291 18.6295 0.087179 0.459984 -1.731873
2008-04-29 08:10:21 51°18.067 2°41.268 18.6064 0.087179 0.459984 -1.731873
2008-04-29 08:10:26 51°18.077 2°41.245 18.6212 0.087179 0.459992 -1.731873
2008-04-29 08:10:31 51°18.086 2°41.222 18.6071 0.087179 0.459999 -1.731873
2008-04-29 08:10:36 51°18.095 2°41.199 18.6382 0.087179 0.460007 -1.731873
2008-04-29 08:10:41 51°18.105 2°41.176 18.5959 0.087179 0.460015 -1.731873
2008-04-29 08:10:46 51°18.114 2°41.153 18.6232 0.087179 0.460015 -1.731873
2008-04-29 08:10:51 51°18.123 2°41.13 18.6317 0.087179 0.460015 -1.731873
2008-04-29 08:10:56 51°18.133 2°41.107 18.624 0.087179 0.460015 -1.731873
2008-04-29 08:11:02 51°18.144 2°41.08 18.6283 0.087179 0.460015 -1.731873
2008-04-29 08:11:06 51°18.152 2°41.062 18.635 0.087179 0.46003 -1.731873
2008-04-29 08:11:11 51°18.161 2°41.039 18.6014 0.087179 0.460046 -1.731873
2008-04-29 08:11:16 51°18.17 2°41.016 18.6183 0.087179 0.460054 -1.731873
2008-04-29 08:11:21 51°18.18 2°40.994 18.6232 0.087179 0.460054 -1.731873
2008-04-29 08:11:26 51°18.189 2°40.971 18.6117 0.087179 0.460061 -1.731873
2008-04-29 08:11:31 51°18.199 2°40.949 18.625 0.087179 0.460077 -1.731873
2008-04-29 08:11:36 51°18.208 2°40.926 18.621 0.087179 0.4601 -1.731873
2008-04-29 08:11:41 51°18.217 2°40.903 18.6178 0.087179 0.460115 -1.731873
2008-04-29 08:11:46 51°18.227 2°40.881 18.6141 0.087179 0.460123 -1.731873
2008-04-29 08:11:51 51°18.237 2°40.859 18.6056 0.087179 0.460123 -1.731873
2008-04-29 08:11:56 51°18.246 2°40.836 18.6124 0.087179 0.460146 -1.731873
2008-04-29 08:12:01 51°18.256 2°40.814 18.6358 0.087179 0.460154 -1.731873
2008-04-29 08:12:06 51°18.266 2°40.793 18.5973 0.087179 0.46017 -1.731873
2008-04-29 08:12:11 51°18.275 2°40.77 18.6216 0.087179 0.460177 -1.731873
2008-04-29 08:12:16 51°18.285 2°40.749 18.6358 0.087179 0.460185 -1.731873
2008-04-29 08:12:21 51°18.295 2°40.727 18.6354 0.087179 0.460185 -1.731873
2008-04-29 08:12:26 51°18.305 2°40.705 18.6313 0.087179 0.460193 -1.731873
2008-04-29 08:12:31 51°18.315 2°40.683 18.6246 0.087179 0.460201 -1.731873
2008-04-29 08:12:36 51°18.325 2°40.66 18.6371 0.087179 0.460201 -1.731873
2008-04-29 08:12:41 51°18.334 2°40.638 18.6337 0.087076 0.459653 -1.731873
2008-04-29 08:12:46 51°18.344 2°40.616 18.6299 0.087076 0.459661 -1.766697
2008-04-29 08:12:51 51°18.353 2°40.593 18.6377 0.087076 0.459661 -1.766697
2008-04-29 08:12:56 51°18.362 2°40.571 18.6169 0.087076 0.459668 -1.766697
2008-04-29 08:13:01 51°18.372 2°40.548 18.6267 0.087076 0.459676 -1.731873
2008-04-29 08:13:06 51°18.381 2°40.525 18.6338 0.087076 0.459676 -1.731873
2008-04-29 08:13:11 51°18.39 2°40.503 18.6282 0.087076 0.459692 -1.731873
2008-04-29 08:13:16 51°18.4 2°40.481 18.6254 0.087076 0.459699 -1.731873
2008-04-29 08:13:21 51°18.409 2°40.458 18.6461 0.087076 0.459699 -1.731873
2008-04-29 08:13:26 51°18.419 2°40.436 18.6232 0.087076 0.459723 -1.731873
2008-04-29 08:13:31 51°18.428 2°40.413 18.6314 0.087076 0.45973 -1.731873
2008-04-29 08:13:36 51°18.438 2°40.391 18.6273 0.087076 0.459746 -1.731873
2008-04-29 08:13:41 51°18.447 2°40.369 18.6329 0.087076 0.459761 -1.731873
2008-04-29 08:13:46 51°18.457 2°40.347 18.6409 0.087076 0.459769 -1.731873
2008-04-29 08:13:51 51°18.466 2°40.325 18.6393 0.087076 0.459769 -1.731873
2008-04-29 08:13:56 51°18.476 2°40.303 18.6261 0.087076 0.459777 -1.731873
2008-04-29 08:14:01 51°18.485 2°40.281 18.6271 0.087076 0.459792 -1.731873
2008-04-29 08:14:06 51°18.495 2°40.259 18.6249 0.087076 0.459792 -1.731873
2008-04-29 08:14:11 51°18.504 2°40.236 18.6098 0.087076 0.4598 -1.731873
2008-04-29 08:14:16 51°18.514 2°40.214 18.6173 0.087076 0.459808 -1.731873
2008-04-29 08:14:21 51°18.524 2°40.192 18.6411 0.087076 0.459808 -1.731873
2008-04-29 08:14:26 51°18.534 2°40.17 18.6423 0.087076 0.459815 -1.731873
2008-04-29 08:14:31 51°18.544 2°40.148 18.6198 0.087076 0.459831 -1.731873
2008-04-29 08:14:36 51°18.554 2°40.126 18.6408 0.087076 0.459839 -1.731873
2008-04-29 08:14:41 51°18.565 2°40.104 18.6433 0.087076 0.459854 -1.731873
2008-04-29 08:14:46 51°18.575 2°40.081 18.6318 0.087076 0.459862 -1.766697
2008-04-29 08:14:51 51°18.585 2°40.059 18.6418 0.087076 0.459862 -1.766697
2008-04-29 08:14:56 51°18.595 2°40.037 18.634 0.087076 0.459877 -1.731873
2008-04-29 08:15:01 51°18.605 2°40.015 18.6268 0.087076 0.459885 -1.731873
2008-04-29 08:15:06 51°18.615 2°39.993 18.6202 0.087076 0.459893 -1.731873
2008-04-29 08:15:11 51°18.625 2°39.971 18.6493 0.087076 0.459908 -1.731873
2008-04-29 08:15:16 51°18.636 2°39.948 18.6201 0.087076 0.459908 -1.731873
2008-04-29 08:15:21 51°18.646 2°39.926 18.6474 0.087076 0.459908 -1.731873
2008-04-29 08:15:26 51°18.657 2°39.904 18.6428 0.087076 0.459924 -1.731873
2008-04-29 08:15:31 51°18.667 2°39.882 18.6339 0.087076 0.459924 -1.731873
2008-04-29 08:15:36 51°18.677 2°39.86 18.631 0.087076 0.459939 -1.731873
2008-04-29 08:15:41 51°18.687 2°39.837 18.6473 0.087076 0.459947 -1.731873
2008-04-29 08:15:46 51°18.698 2°39.815 18.6458 0.087076 0.459962 -1.731873
2008-04-29 08:15:51 51°18.708 2°39.793 18.6318 0.087076 0.459962 -1.731873
2008-04-29 08:15:56 51°18.718 2°39.77 18.6314 0.087076 0.459962 -1.731873
2008-04-29 08:16:02 51°18.73 2°39.743 18.6364 0.087076 0.459978 -1.731873
2008-04-29 08:16:06 51°18.739 2°39.726 18.6455 0.087076 0.459993 -1.731873
2008-04-29 08:16:11 51°18.749 2°39.703 18.6331 0.087076 0.460009 -1.731873
2008-04-29 08:16:16 51°18.759 2°39.681 18.6572 0.087076 0.460017 -1.731873
2008-04-29 08:16:22 51°18.771 2°39.654 18.6304 0.087076 0.460017 -1.731873
2008-04-29 08:16:26 51°18.78 2°39.636 18.6393 0.087076 0.460024 -1.731873
2008-04-29 08:16:31 51°18.79 2°39.614 18.6335 0.087076 0.46004 -1.731873
2008-04-29 08:16:36 51°18.8 2°39.591 18.6523 0.087076 0.460048 -1.731873
2008-04-29 08:16:41 51°18.811 2°39.569 18.6421 0.087076 0.460063 -1.766697
2008-04-29 08:16:46 51°18.821 2°39.546 18.642 0.087076 0.460063 -1.731873
2008-04-29 08:16:51 51°18.831 2°39.524 18.6348 0.087076 0.460063 -1.731873
2008-04-29 08:16:56 51°18.842 2°39.501 18.6295 0.087076 0.460079 -1.731873
2008-04-29 08:17:02 51°18.854 2°39.475 18.6552 0.087076 0.460086 -1.731873
2008-04-29 08:17:06 51°18.862 2°39.457 18.6418 0.087076 0.460102 -1.731873
2008-04-29 08:17:11 51°18.872 2°39.434 18.6477 0.087076 0.46011 -1.731873
2008-04-29 08:17:16 51°18.882 2°39.411 18.6366 0.087076 0.460117 -1.731873
2008-04-29 08:17:21 51°18.892 2°39.389 18.647 0.087076 0.460117 -1.731873
2008-04-29 08:17:26 51°18.902 2°39.367 18.6453 0.087076 0.460133 -1.731873
2008-04-29 08:17:31 51°18.912 2°39.344 18.6524 0.087076 0.460141 -1.731873
2008-04-29 08:17:36 51°18.922 2°39.322 18.6401 0.087076 0.460156 -1.731873
2008-04-29 08:17:41 51°18.932 2°39.3 18.6498 0.087076 0.460172 -1.731873
2008-04-29 08:17:46 51°18.942 2°39.277 18.6577 0.087076 0.460187 -1.731873
2008-04-29 08:17:51 51°18.951 2°39.254 18.6477 0.087076 0.460187 -1.731873
2008-04-29 08:17:56 51°18.961 2°39.232 18.6414 0.087076 0.460195 -1.731873
2008-04-29 08:18:02 51°18.972 2°39.204 18.6566 0.087076 0.46021 -1.731873
2008-04-29 08:18:06 51°18.979 2°39.186 18.6591 0.087076 0.46021 -1.731873
2008-04-29 08:18:11 51°18.988 2°39.163 18.6409 0.086973 0.459662 -1.731873
2008-04-29 08:18:16 51°18.998 2°39.14 18.6392 0.086973 0.459678 -1.731873
2008-04-29 08:18:22 51°19.008 2°39.112 18.6393 0.086973 0.459678 -1.731873
2008-04-29 08:18:26 51°19.016 2°39.093 18.646 0.086973 0.459678 -1.731873
2008-04-29 08:18:31 51°19.026 2°39.071 18.6483 0.086973 0.459693 -1.731873
2008-04-29 08:18:36 51°19.035 2°39.048 18.622 0.086973 0.459709 -1.731873
2008-04-29 08:18:41 51°19.045 2°39.026 18.6553 0.086973 0.459716 -1.731873
2008-04-29 08:18:46 51°19.056 2°39.004 18.6492 0.086973 0.459732 -1.731873
2008-04-29 08:18:51 51°19.065 2°38.981 18.6441 0.086973 0.459732 -1.731873
2008-04-29 08:18:56 51°19.075 2°38.959 18.6721 0.086973 0.45974 -1.731873
2008-04-29 08:19:01 51°19.085 2°38.937 18.6302 0.086973 0.459747 -1.731873
2008-04-29 08:19:06 51°19.095 2°38.914 18.6591 0.086973 0.459693 -1.731873
2008-04-29 08:19:11 51°19.105 2°38.891 18.6593 0.086973 0.459639 -1.731873
2008-04-29 08:19:16 51°19.115 2°38.868 18.6592 0.086973 0.459608 -1.731873
2008-04-29 08:19:21 51°19.124 2°38.846 18.6586 0.086973 0.459608 -1.731873
2008-04-29 08:19:26 51°19.134 2°38.823 18.6422 0.086973 0.459616 -1.731873
2008-04-29 08:19:31 51°19.143 2°38.8 18.6498 0.086973 0.459647 -1.731873
2008-04-29 08:19:36 51°19.152 2°38.777 18.6636 0.086973 0.459716 -1.731873
2008-04-29 08:19:41 51°19.162 2°38.755 18.6597 0.086973 0.459794 -1.731873
2008-04-29 08:19:46 51°19.171 2°38.732 18.6498 0.086973 0.459871 -1.731873
2008-04-29 08:19:51 51°19.18 2°38.709 18.6422 0.086973 0.459871 -1.731873
2008-04-29 08:19:56 51°19.19 2°38.686 18.6581 0.086973 0.45991 -1.731873
2008-04-29 08:20:02 51°19.201 2°38.659 18.6562 0.086973 0.459949 -1.731873
2008-04-29 08:20:06 51°19.208 2°38.641 18.6605 0.086973 0.459949 -1.731873
2008-04-29 08:20:11 51°19.217 2°38.617 18.6559 0.086973 0.459941 -1.731873
2008-04-29 08:20:16 51°19.227 2°38.594 18.6569 0.086973 0.459918 -1.766697
2008-04-29 08:20:21 51°19.236 2°38.571 18.6593 0.086973 0.459918 -1.766697
2008-04-29 08:20:26 51°19.245 2°38.548 18.6509 0.086973 0.459895 -1.766697
2008-04-29 08:20:31 51°19.255 2°38.525 18.6653 0.086973 0.459871 -1.731873
2008-04-29 08:20:36 51°19.265 2°38.503 18.6583 0.086973 0.459856 -1.731873
2008-04-29 08:20:41 51°19.275 2°38.48 18.6728 0.086973 0.459848 -1.731873
2008-04-29 08:20:46 51°19.285 2°38.457 18.6585 0.086973 0.459864 -1.766697
2008-04-29 08:20:51 51°19.295 2°38.434 18.6552 0.086973 0.459864 -1.766697
2008-04-29 08:20:56 51°19.304 2°38.411 18.6509 0.086973 0.459879 -1.766697
2008-04-29 08:21:01 51°19.314 2°38.387 18.6667 0.086973 0.459902 -1.731873
2008-04-29 08:21:06 51°19.323 2°38.364 18.6642 0.086973 0.459926 -1.731873
2008-04-29 08:21:11 51°19.333 2°38.341 18.6604 0.086973 0.459957 -1.731873
2008-04-29 08:21:16 51°19.343 2°38.318 18.6569 0.086973 0.45998 -1.731873
2008-04-29 08:21:21 51°19.353 2°38.296 18.6746 0.086973 0.45998 -1.731873
2008-04-29 08:21:26 51°19.363 2°38.273 18.6709 0.086973 0.459995 -1.731873
2008-04-29 08:21:31 51°19.372 2°38.25 18.6699 0.086973 0.460003 -1.731873
2008-04-29 08:21:36 51°19.382 2°38.227 18.6652 0.086973 0.460011 -1.731873
2008-04-29 08:21:41 51°19.391 2°38.204 18.67 0.086973 0.460011 -1.766697
2008-04-29 08:21:46 51°19.401 2°38.181 18.6564 0.086973 0.460011 -1.766697
2008-04-29 08:21:51 51°19.41 2°38.158 18.6692 0.086973 0.460011 -1.766697
2008-04-29 08:21:56 51°19.419 2°38.135 18.6672 0.086973 0.460019 -1.731873
2008-04-29 08:22:02 51°19.431 2°38.107 18.6675 0.086973 0.460026 -1.731873
2008-04-29 08:22:06 51°19.438 2°38.089 18.6625 0.086973 0.460034 -1.731873
2008-04-29 08:22:11 51°19.448 2°38.066 18.6662 0.086973 0.46005 -1.731873
2008-04-29 08:22:16 51°19.458 2°38.043 18.6798 0.086973 0.460065 -1.731873
2008-04-29 08:22:21 51°19.467 2°38.02 18.6742 0.086973 0.460065 -1.731873
2008-04-29 08:22:26 51°19.477 2°37.997 18.6661 0.086973 0.460073 -1.731873
2008-04-29 08:22:31 51°19.487 2°37.975 18.676 0.086973 0.460088 -1.731873
2008-04-29 08:22:36 51°19.496 2°37.952 18.6678 0.086973 0.460096 -1.731873
2008-04-29 08:22:41 51°19.506 2°37.929 18.6581 0.086973 0.460096 -1.766697
2008-04-29 08:22:46 51°19.516 2°37.907 18.6554 0.086973 0.460104 -1.731873
2008-04-29 08:22:51 51°19.526 2°37.884 18.6678 0.086973 0.460104 -1.731873
2008-04-29 08:22:56 51°19.535 2°37.861 18.6774 0.086973 0.460104 -1.731873
2008-04-29 08:23:02 51°19.547 2°37.834 18.6766 0.086973 0.460119 -1.731873
2008-04-29 08:23:06 51°19.554 2°37.815 18.6791 0.086973 0.460127 -1.731873
2008-04-29 08:23:11 51°19.564 2°37.793 18.6816 0.086973 0.460143 -1.731873
2008-04-29 08:23:16 51°19.574 2°37.77 18.6653 0.086973 0.460158 -1.731873
2008-04-29 08:23:21 51°19.583 2°37.747 18.6881 0.086973 0.460158 -1.731873
2008-04-29 08:23:26 51°19.593 2°37.725 18.6678 0.086973 0.460174 -1.731873
2008-04-29 08:23:31 51°19.602 2°37.702 18.6804 0.086973 0.460182 -1.731873
2008-04-29 08:23:36 51°19.612 2°37.679 18.6676 0.086973 0.460205 -1.731873
2008-04-29 08:23:41 51°19.621 2°37.657 18.6863 0.086973 0.46022 -1.731873
2008-04-29 08:23:46 51°19.631 2°37.634 18.6595 0.08687 0.459664 -1.731873
2008-04-29 08:23:51 51°19.641 2°37.612 18.6877 0.08687 0.459664 -1.731873
2008-04-29 08:23:56 51°19.651 2°37.59 18.6625 0.08687 0.459687 -1.731873
2008-04-29 08:24:02 51°19.663 2°37.562 18.676 0.08687 0.459695 -1.731873
2008-04-29 08:24:06 51°19.671 2°37.545 18.6823 0.08687 0.45971 -1.731873
2008-04-29 08:24:11 51°19.68 2°37.522 18.6786 0.08687 0.459718 -1.731873
2008-04-29 08:24:16 51°19.69 2°37.5 18.6696 0.08687 0.459726 -1.731873
2008-04-29 08:24:21 51°19.7 2°37.477 18.6884 0.08687 0.459726 -1.731873
2008-04-29 08:24:26 51°19.709 2°37.454 18.6778 0.08687 0.459726 -1.731873
2008-04-29 08:24:31 51°19.718 2°37.431 18.6588 0.08687 0.459726 -1.731873
2008-04-29 08:24:36 51°19.728 2°37.408 18.6734 0.08687 0.459734 -1.731873
2008-04-29 08:24:41 51°19.738 2°37.386 18.6646 0.08687 0.459734 -1.731873
2008-04-29 08:24:46 51°19.748 2°37.365 18.6785 0.08687 0.459741 -1.731873
2008-04-29 08:24:51 51°19.758 2°37.343 18.6879 0.08687 0.459741 -1.731873
2008-04-29 08:24:56 51°19.768 2°37.32 18.6765 0.08687 0.459749 -1.731873
2008-04-29 08:25:02 51°19.78 2°37.293 18.6819 0.08687 0.459757 -1.731873
2008-04-29 08:25:06 51°19.788 2°37.276 18.6774 0.08687 0.45978 -1.731873
2008-04-29 08:25:11 51°19.797 2°37.253 18.6822 0.08687 0.459788 -1.731873
2008-04-29 08:25:16 51°19.808 2°37.231 18.6927 0.08687 0.459803 -1.731873
2008-04-29 08:25:21 51°19.817 2°37.208 18.6953 0.08687 0.459803 -1.731873
2008-04-29 08:25:26 51°19.827 2°37.186 18.6697 0.08687 0.459819 -1.731873
2008-04-29 08:25:31 51°19.837 2°37.163 18.6875 0.08687 0.459819 -1.731873
2008-04-29 08:25:36 51°19.848 2°37.142 18.6545 0.08687 0.459834 -1.731873
2008-04-29 08:25:41 51°19.857 2°37.119 18.6688 0.08687 0.459842 -1.731873
2008-04-29 08:25:46 51°19.868 2°37.099 18.6476 0.08687 0.459858 -1.766697
2008-04-29 08:25:51 51°19.878 2°37.079 18.6759 0.08687 0.459858 -1.766697
2008-04-29 08:25:56 51°19.887 2°37.062 18.6841 0.08687 0.459873 -1.731873
2008-04-29 08:26:01 51°19.896 2°37.045 18.697 0.08687 0.459873 -1.731873
2008-04-29 08:26:06 51°19.905 2°37.031 18.6913 0.08687 0.459889 -1.731873
2008-04-29 08:26:11 51°19.912 2°37.017 18.6982 0.08687 0.459897 -1.731873
2008-04-29 08:26:16 51°19.921 2°37.004 18.7067 0.08687 0.459904 -1.731873
2008-04-29 08:26:21 51°19.928 2°36.991 18.7069 0.08687 0.459904 -1.731873
2008-04-29 08:26:26 51°19.935 2°36.979 18.6974 0.08687 0.459912 -1.731873
2008-04-29 08:26:31 51°19.942 2°36.968 18.7159 0.08687 0.45992 -1.731873
2008-04-29 08:26:36 51°19.949 2°36.957 18.7004 0.08687 0.459928 -1.766697
2008-04-29 08:26:41 51°19.956 2°36.945 18.6971 0.08687 0.459935 -1.731873
2008-04-29 08:26:46 51°19.962 2°36.935 18.7049 0.08687 0.459959 -1.731873
2008-04-29 08:26:51 51°19.968 2°36.925 18.705 0.08687 0.459959 -1.731873
2008-04-29 08:26:56 51°19.974 2°36.915 18.712 0.08687 0.459959 -1.731873
2008-04-29 08:27:02 51°19.981 2°36.903 18.712 0.08687 0.459974 -1.731873
2008-04-29 08:27:06 51°19.985 2°36.896 18.7011 0.08687 0.45999 -1.731873
2008-04-29 08:27:11 51°19.99 2°36.887 18.7081 0.08687 0.459998 -1.731873
2008-04-29 08:27:16 51°19.995 2°36.879 18.7176 0.08687 0.460013 -1.731873
2008-04-29 08:27:21 51°19.999 2°36.872 18.7017 0.08687 0.460013 -1.731873
2008-04-29 08:27:26 51°20.002 2°36.867 18.7248 0.08687 0.460029 -1.731873
2008-04-29 08:27:31 51°20.005 2°36.862 18.7272 0.08687 0.460052 -1.766697
2008-04-29 08:27:36 51°20.007 2°36.858 18.7312 0.08687 0.460067 -1.731873
2008-04-29 08:27:42 51°20.01 2°36.853 18.722 0.08687 0.460083 -1.766697
2008-04-29 08:27:46 51°20.011 2°36.849 18.7145 0.08687 0.460083 -1.766697
2008-04-29 08:27:51 51°20.013 2°36.846 18.7133 0.08687 0.460083 -1.766697
2008-04-29 08:27:56 51°20.015 2°36.842 18.7137 0.08687 0.460099 -1.731873
2008-04-29 08:28:01 51°20.016 2°36.838 18.7156 0.08687 0.460106 -1.766697
2008-04-29 08:28:06 51°20.017 2°36.834 18.7286 0.08687 0.460099 -1.731873
2008-04-29 08:28:11 51°20.019 2°36.831 18.7212 0.08687 0.460106 -1.731873
2008-04-29 08:28:16 51°20.02 2°36.829 18.7239 0.08687 0.460114 -1.766697
2008-04-29 08:28:21 51°20.021 2°36.826 18.7243 0.08687 0.460114 -1.766697
2008-04-29 08:28:26 51°20.023 2°36.824 18.7217 0.08687 0.460122 -1.731873
2008-04-29 08:28:31 51°20.024 2°36.822 18.7195 0.08687 0.46013 -1.731873
2008-04-29 08:28:36 51°20.025 2°36.82 18.7127 0.08687 0.460145 -1.731873
2008-04-29 08:28:41 51°20.026 2°36.819 18.7143 0.08687 0.460153 -1.766697
2008-04-29 08:28:46 51°20.028 2°36.818 18.7187 0.08687 0.460168 -1.731873
2008-04-29 08:28:51 51°20.029 2°36.817 18.7143 0.08687 0.460168 -1.731873
2008-04-29 08:28:56 51°20.031 2°36.817 18.7233 0.08687 0.460176 -1.766697
2008-04-29 08:29:02 51°20.032 2°36.818 18.7156 0.08687 0.460192 -1.731873
2008-04-29 08:29:06 51°20.034 2°36.818 18.715 0.08687 0.4602 -1.731873
2008-04-29 08:29:11 51°20.035 2°36.819 18.7205 0.08687 0.460207 -1.731873
2008-04-29 08:29:16 51°20.037 2°36.82 18.7065 0.08687 0.460215 -1.731873
2008-04-29 08:29:21 51°20.038 2°36.822 18.7233 0.08687 0.460215 -1.731873
2008-04-29 08:29:26 51°20.04 2°36.823 18.7175 0.08687 0.460223 -1.731873
2008-04-29 08:29:31 51°20.042 2°36.825 18.7098 0.08687 0.460231 -1.731873
2008-04-29 08:29:36 51°20.043 2°36.828 18.7163 0.086768 0.459673 -1.731873
2008-04-29 08:29:42 51°20.045 2°36.83 18.716 0.086768 0.459681 -1.731873
2008-04-29 08:29:46 51°20.047 2°36.832 18.7226 0.086768 0.459689 -1.731873
2008-04-29 08:29:51 51°20.048 2°36.835 18.7122 0.086768 0.459689 -1.731873
2008-04-29 08:29:56 51°20.05 2°36.837 18.722 0.086768 0.459704 -1.731873
2008-04-29 08:30:02 51°20.052 2°36.84 18.7252 0.086768 0.459712 -1.766697
2008-04-29 08:30:08 51°20.053 2°36.843 18.7239 0.086768 0.45972 -1.766697
2008-04-29 08:30:14 51°20.055 2°36.847 18.7278 0.086768 0.459736 -1.731873
2008-04-29 08:30:18 51°20.056 2°36.849 18.7202 0.086768 0.459743 -1.731873
2008-04-29 08:30:24 51°20.058 2°36.852 18.7234 0.086768 0.459743 -1.731873
2008-04-29 08:30:30 51°20.059 2°36.854 18.7203 0.086768 0.459759 -1.731873
2008-04-29 08:30:34 51°20.06 2°36.856 18.7198 0.086768 0.459767 -1.731873
2008-04-29 08:30:40 51°20.061 2°36.858 18.7175 0.086768 0.459782 -1.731873
2008-04-29 08:30:45 51°20.063 2°36.86 18.7261 0.086768 0.459798 -1.766697
2008-04-29 08:30:50 51°20.064 2°36.862 18.7247 0.086768 0.459806 -1.731873
2008-04-29 08:30:55 51°20.065 2°36.864 18.7261 0.086768 0.459806 -1.731873
2008-04-29 08:31:00 51°20.066 2°36.865 18.7149 0.086768 0.459821 -1.731873
2008-04-29 08:31:05 51°20.067 2°36.867 18.7225 0.086768 0.459837 -1.766697
2008-04-29 08:31:10 51°20.069 2°36.868 18.7159 0.086768 0.459844 -1.731873
2008-04-29 08:31:14 51°20.07 2°36.87 18.7267 0.086768 0.459852 -1.731873
2008-04-29 08:31:19 51°20.071 2°36.871 18.7303 0.086768 0.459868 -1.731873
2008-04-29 08:31:24 51°20.072 2°36.873 18.7318 0.086768 0.459868 -1.731873
2008-04-29 08:31:29 51°20.073 2°36.874 18.723 0.086768 0.459883 -1.731873
2008-04-29 08:31:34 51°20.075 2°36.876 18.7275 0.086768 0.459891 -1.766697
2008-04-29 08:31:38 51°20.076 2°36.877 18.7191 0.086768 0.459907 -1.731873
2008-04-29 08:31:43 51°20.077 2°36.878 18.7284 0.086768 0.459914 -1.766697
2008-04-29 08:31:48 51°20.079 2°36.88 18.7286 0.086768 0.45993 -1.731873
2008-04-29 08:31:53 51°20.08 2°36.881 18.7259 0.086768 0.45993 -1.731873
2008-04-29 08:31:58 51°20.081 2°36.883 18.7349 0.086768 0.459938 -1.731873
2008-04-29 08:32:03 51°20.082 2°36.885 18.7332 0.086768 0.459953 -1.731873
2008-04-29 08:32:07 51°20.083 2°36.886 18.7281 0.086768 0.459969 -1.731873
2008-04-29 08:32:12 51°20.085 2°36.888 18.7302 0.086768 0.459977 -1.731873
2008-04-29 08:32:17 51°20.086 2°36.89 18.7253 0.086768 0.459992 -1.731873
2008-04-29 08:32:22 51°20.087 2°36.891 18.731 0.086768 0.459992 -1.731873
2008-04-29 08:32:27 51°20.088 2°36.893 18.7248 0.086768 0.460008 -1.731873
2008-04-29 08:32:32 51°20.089 2°36.895 18.7359 0.086768 0.460023 -1.731873
2008-04-29 08:32:37 51°20.09 2°36.897 18.7293 0.086768 0.460039 -1.731873
2008-04-29 08:32:42 51°20.091 2°36.9 18.7257 0.086768 0.460054 -1.766697
2008-04-29 08:32:46 51°20.091 2°36.901 18.7318 0.086768 0.46007 -1.731873
2008-04-29 08:32:51 51°20.092 2°36.903 18.7316 0.086768 0.46007 -1.731873
2008-04-29 08:32:56 51°20.093 2°36.906 18.7343 0.086768 0.460078 -1.731873
2008-04-29 08:33:01 51°20.094 2°36.908 18.7322 0.086768 0.460086 -1.766697
2008-04-29 08:33:06 51°20.094 2°36.909 18.7354 0.086768 0.460101 -1.731873
2008-04-29 08:33:11 51°20.095 2°36.911 18.7288 0.086768 0.460109 -1.731873
2008-04-29 08:33:16 51°20.096 2°36.913 18.7331 0.086768 0.460117 -1.731873
2008-04-29 08:33:22 51°20.097 2°36.915 18.7381 0.086768 0.460117 -1.731873
2008-04-29 08:33:26 51°20.098 2°36.916 18.7392 0.086768 0.460132 -1.766697
2008-04-29 08:33:31 51°20.099 2°36.917 18.7293 0.086768 0.460132 -1.731873
2008-04-29 08:33:36 51°20.1 2°36.919 18.7318 0.086768 0.460156 -1.731873
2008-04-29 08:33:41 51°20.101 2°36.92 18.7341 0.086768 0.460163 -1.731873
2008-04-29 08:33:46 51°20.103 2°36.921 18.7332 0.086768 0.460179 -1.731873
2008-04-29 08:33:51 51°20.104 2°36.922 18.7404 0.086768 0.460179 -1.731873
2008-04-29 08:33:56 51°20.105 2°36.924 18.7221 0.086768 0.460187 -1.766697
2008-04-29 08:34:01 51°20.106 2°36.925 18.7403 0.086768 0.460202 -1.766697
2008-04-29 08:34:06 51°20.107 2°36.926 18.7252 0.086768 0.460218 -1.766697
2008-04-29 08:34:11 51°20.109 2°36.927 18.7334 0.086768 0.460226 -1.731873
2008-04-29 08:34:16 51°20.11 2°36.928 18.7396 0.086768 0.460249 -1.731873
2008-04-29 08:34:22 51°20.112 2°36.929 18.7326 0.086768 0.460249 -1.731873
2008-04-29 08:34:26 51°20.113 2°36.93 18.742 0.086768 0.460257 -1.731873
2008-04-29 08:34:31 51°20.114 2°36.931 18.7444 0.086768 0.460272 -1.766697
2008-04-29 08:34:36 51°20.115 2°36.932 18.7384 0.086768 0.46028 -1.766697
2008-04-29 08:34:41 51°20.117 2°36.933 18.7367 0.086665 0.45973 -1.731873
2008-04-29 08:34:46 51°20.118 2°36.934 18.744 0.086768 0.460304 -1.731873
2008-04-29 08:34:51 51°20.12 2°36.935 18.7346 0.086768 0.460304 -1.731873